FIN31 EFHK-CYYZ

Flight info

Callsign FIN31
Flight time 8h 19m
Altitude 38000
Route NEPEK4N NEPEK Y361 NISVI DCT GUBNO/M081F380 DCT 6910N DCT 6920N DCT 68N031W DCT 6450N/M081F400 DCT H6256/N0475F400 DCT 58N065W 51N074W DCT ROSVO IMEBA9
Aircraft A333/H-SDE3GHIJ2J3J5M1RVWXY/LB2D1

Departure

Time 2026-05-07 08:45
Airport Helsinki Vantaa Airport (EFHK)

Arrival

Time 2026-05-07 17:04
Airport Toronto Pearson International Airport (CYYZ)
Time Latitude Longitude Altitude Speed Heading
2026-05-07 08:04 60.31389 24.95856 170 ft 0 kts 328°
2026-05-07 08:30 60.31388 24.95857 170 ft 1 kts 328°
2026-05-07 08:30 60.31368 24.95886 170 ft 4 kts 317°
2026-05-07 08:30 60.31351 24.95926 170 ft 4 kts 298°
2026-05-07 08:30 60.31343 24.95973 170 ft 4 kts 262°
2026-05-07 08:31 60.31348 24.96004 170 ft 0 kts 227°
2026-05-07 08:34 60.31347 24.96002 170 ft 0 kts 227°
2026-05-07 08:34 60.31326 24.95956 170 ft 9 kts 227°
2026-05-07 08:34 60.31280 24.95853 170 ft 10 kts 227°
2026-05-07 08:35 60.31232 24.95749 170 ft 10 kts 227°
2026-05-07 08:35 60.31184 24.95642 170 ft 10 kts 227°
2026-05-07 08:35 60.31169 24.95536 170 ft 8 kts 285°
2026-05-07 08:35 60.31202 24.95449 170 ft 8 kts 317°
2026-05-07 08:36 60.31243 24.95373 170 ft 8 kts 317°
2026-05-07 08:36 60.31285 24.95295 170 ft 8 kts 318°
2026-05-07 08:36 60.31327 24.95219 170 ft 8 kts 317°
2026-05-07 08:36 60.31369 24.95142 170 ft 8 kts 317°
2026-05-07 08:37 60.31408 24.95061 170 ft 8 kts 309°
2026-05-07 08:37 60.31442 24.94987 172 ft 6 kts 321°
2026-05-07 08:37 60.31476 24.94981 172 ft 7 kts 18°
2026-05-07 08:37 60.31521 24.95059 173 ft 8 kts 47°
2026-05-07 08:38 60.31557 24.95140 173 ft 9 kts 48°
2026-05-07 08:38 60.31604 24.95245 173 ft 12 kts 48°
2026-05-07 08:38 60.31663 24.95374 174 ft 13 kts 47°
2026-05-07 08:38 60.31724 24.95509 175 ft 13 kts 47°
2026-05-07 08:39 60.31789 24.95650 173 ft 14 kts 47°
2026-05-07 08:39 60.31856 24.95796 172 ft 15 kts 47°
2026-05-07 08:39 60.31923 24.95945 173 ft 13 kts 47°
2026-05-07 08:39 60.31947 24.95970 174 ft 3 kts 355°
2026-05-07 08:40 60.31987 24.95921 176 ft 12 kts 318°
2026-05-07 08:40 60.32063 24.95779 178 ft 18 kts 318°
2026-05-07 08:40 60.32159 24.95602 176 ft 19 kts 317°
2026-05-07 08:40 60.32252 24.95430 179 ft 18 kts 317°
2026-05-07 08:41 60.32339 24.95281 180 ft 15 kts 330°
2026-05-07 08:41 60.32434 24.95212 182 ft 14 kts 342°
2026-05-07 08:41 60.32527 24.95152 184 ft 14 kts 342°
2026-05-07 08:41 60.32618 24.95091 197 ft 14 kts 342°
2026-05-07 08:42 60.32714 24.95029 182 ft 16 kts 342°
2026-05-07 08:42 60.32826 24.94957 179 ft 18 kts 342°
2026-05-07 08:42 60.32936 24.94834 181 ft 17 kts 319°
2026-05-07 08:42 60.33018 24.94683 193 ft 15 kts 317°
2026-05-07 08:43 60.33083 24.94562 203 ft 11 kts 317°
2026-05-07 08:43 60.33120 24.94482 205 ft 6 kts 300°
2026-05-07 08:43 60.33118 24.94406 200 ft 5 kts 242°
2026-05-07 08:43 60.33091 24.94339 205 ft 7 kts 228°
2026-05-07 08:44 60.33009 24.94159 207 ft 40 kts 227°
2026-05-07 08:44 60.32680 24.93435 197 ft 97 kts 227°
2026-05-07 08:44 60.32109 24.92178 162 ft 146 kts 227°
2026-05-07 08:44 60.31342 24.90496 397 ft 167 kts 227°
2026-05-07 08:45 60.30588 24.88718 958 ft 170 kts 235°
2026-05-07 08:45 60.30263 24.86359 1323 ft 189 kts 273°
2026-05-07 08:45 60.30597 24.83686 1509 ft 208 kts 289°
2026-05-07 08:45 60.31123 24.80808 1731 ft 228 kts 289°
2026-05-07 08:46 60.31721 24.77668 1936 ft 250 kts 294°
2026-05-07 08:46 60.32547 24.74522 2463 ft 259 kts 299°
2026-05-07 08:46 60.33514 24.71401 3171 ft 263 kts 309°
2026-05-07 08:46 60.34857 24.68876 3879 ft 263 kts 326°
2026-05-07 08:47 60.36410 24.67003 4644 ft 263 kts 334°
2026-05-07 08:47 60.38064 24.65439 5377 ft 263 kts 338°
2026-05-07 08:47 60.39784 24.64059 6149 ft 265 kts 340°
2026-05-07 08:47 60.41526 24.62755 6888 ft 268 kts 340°
2026-05-07 08:48 60.43274 24.61460 7593 ft 271 kts 340°
2026-05-07 08:48 60.45063 24.60110 8315 ft 275 kts 338°
2026-05-07 08:48 60.46841 24.58737 9018 ft 278 kts 338°
2026-05-07 08:48 60.48650 24.57314 9760 ft 281 kts 336°
2026-05-07 08:49 60.50494 24.55838 10310 ft 289 kts 336°
2026-05-07 08:49 60.52408 24.54289 10615 ft 306 kts 336°
2026-05-07 08:49 60.54453 24.52632 10896 ft 323 kts 336°
2026-05-07 08:49 60.56580 24.50907 11180 ft 338 kts 336°
2026-05-07 08:50 60.58781 24.49123 11652 ft 345 kts 336°
2026-05-07 08:50 60.61046 24.47288 12290 ft 349 kts 335°
2026-05-07 08:50 60.63293 24.45473 12942 ft 351 kts 335°
2026-05-07 08:50 60.65569 24.43631 13581 ft 354 kts 334°
2026-05-07 08:51 60.67861 24.41769 14149 ft 357 kts 334°
2026-05-07 08:51 60.70166 24.39896 14670 ft 360 kts 334°
2026-05-07 08:51 60.72510 24.37988 15208 ft 363 kts 334°
2026-05-07 08:51 60.74079 24.36707 15561 ft 365 kts 334°
2026-05-07 08:52 60.77241 24.34123 16261 ft 369 kts 333°
2026-05-07 08:52 60.78816 24.32834 16605 ft 370 kts 333°
2026-05-07 08:52 60.82027 24.30203 17293 ft 374 kts 333°
2026-05-07 08:52 60.83643 24.28875 17645 ft 376 kts 333°
2026-05-07 08:53 60.86885 24.26208 18314 ft 379 kts 333°
2026-05-07 08:53 60.88547 24.24839 18614 ft 381 kts 333°
2026-05-07 08:53 60.91005 24.22808 19022 ft 384 kts 332°
2026-05-07 08:53 60.93482 24.20760 19438 ft 387 kts 332°
2026-05-07 08:54 60.96009 24.18669 19852 ft 390 kts 332°
2026-05-07 08:54 60.98525 24.16581 20262 ft 393 kts 332°
2026-05-07 08:54 61.01054 24.14480 20723 ft 395 kts 331°
2026-05-07 08:54 61.03627 24.12339 21148 ft 397 kts 331°
2026-05-07 08:55 61.06180 24.10210 21546 ft 400 kts 331°
2026-05-07 08:55 61.08786 24.08033 21955 ft 402 kts 330°
2026-05-07 08:55 61.11278 24.05586 22354 ft 398 kts 323°
2026-05-07 08:55 61.13581 24.02406 22754 ft 393 kts 315°
2026-05-07 08:56 61.15661 23.98834 23154 ft 392 kts 311°
2026-05-07 08:56 61.17678 23.95073 23556 ft 393 kts 310°
2026-05-07 08:56 61.19673 23.91168 23871 ft 394 kts 309°
2026-05-07 08:56 61.21655 23.87199 24187 ft 396 kts 308°
2026-05-07 08:57 61.23624 23.83227 24505 ft 398 kts 308°
2026-05-07 08:57 61.25627 23.79191 24825 ft 400 kts 308°
2026-05-07 08:57 61.27627 23.75174 25112 ft 402 kts 308°
2026-05-07 08:57 61.29635 23.71152 25402 ft 404 kts 308°
2026-05-07 08:58 61.31683 23.67057 25763 ft 405 kts 308°
2026-05-07 08:58 61.33699 23.63025 26082 ft 407 kts 308°
2026-05-07 08:58 61.35764 23.58892 26379 ft 409 kts 308°
2026-05-07 08:58 61.37803 23.54802 26669 ft 411 kts 308°
2026-05-07 08:59 61.39880 23.50623 26983 ft 412 kts 307°
2026-05-07 08:59 61.41934 23.46490 27290 ft 414 kts 307°
2026-05-07 08:59 61.43993 23.42337 27594 ft 415 kts 307°
2026-05-07 08:59 61.46075 23.38125 27858 ft 417 kts 307°
2026-05-07 09:00 61.48178 23.33861 28134 ft 419 kts 307°
2026-05-07 09:00 61.50251 23.29647 28403 ft 420 kts 307°
2026-05-07 09:00 61.52365 23.25345 28673 ft 422 kts 306°
2026-05-07 09:00 61.54458 23.21076 28936 ft 424 kts 306°
2026-05-07 09:01 61.56589 23.16722 29262 ft 425 kts 306°
2026-05-07 09:01 61.58702 23.12398 29510 ft 427 kts 306°
2026-05-07 09:01 61.60820 23.08050 29756 ft 429 kts 306°
2026-05-07 09:01 61.62977 23.03617 29995 ft 431 kts 306°
2026-05-07 09:02 61.65108 22.99227 30217 ft 433 kts 306°
2026-05-07 09:02 61.67275 22.94755 30417 ft 435 kts 306°
2026-05-07 09:02 61.69427 22.90305 30610 ft 436 kts 306°
2026-05-07 09:02 61.71608 22.85786 30782 ft 438 kts 306°
2026-05-07 09:03 61.73771 22.81294 30977 ft 440 kts 306°
2026-05-07 09:03 61.75967 22.76726 31145 ft 442 kts 307°
2026-05-07 09:03 61.78140 22.72193 31353 ft 444 kts 307°
2026-05-07 09:03 61.80336 22.67605 31530 ft 445 kts 307°
2026-05-07 09:04 61.82549 22.62971 31838 ft 444 kts 307°
2026-05-07 09:04 61.84732 22.58394 32091 ft 444 kts 307°
2026-05-07 09:04 61.86913 22.53809 32324 ft 444 kts 307°
2026-05-07 09:04 61.89128 22.49142 32544 ft 444 kts 308°
2026-05-07 09:05 61.91305 22.44543 32841 ft 444 kts 308°
2026-05-07 09:05 61.93511 22.39875 33062 ft 445 kts 308°
2026-05-07 09:05 61.95683 22.35266 33271 ft 445 kts 308°
2026-05-07 09:05 61.97862 22.30633 33485 ft 445 kts 308°
2026-05-07 09:06 62.00039 22.25993 33699 ft 445 kts 308°
2026-05-07 09:06 62.02232 22.21312 33935 ft 445 kts 308°
2026-05-07 09:06 62.04441 22.16585 34108 ft 445 kts 308°
2026-05-07 09:06 62.06609 22.11934 34286 ft 446 kts 309°
2026-05-07 09:07 62.08810 22.07203 34400 ft 448 kts 309°
2026-05-07 09:07 62.10980 22.02528 34521 ft 448 kts 309°
2026-05-07 09:07 62.13193 21.97749 34706 ft 448 kts 309°
2026-05-07 09:07 62.15362 21.93057 34851 ft 448 kts 309°
2026-05-07 09:08 62.17569 21.88275 35000 ft 449 kts 309°
2026-05-07 09:08 62.19747 21.83542 35142 ft 449 kts 309°
2026-05-07 09:08 62.21955 21.78735 35305 ft 449 kts 309°
2026-05-07 09:08 62.24135 21.73978 35450 ft 449 kts 309°
2026-05-07 09:09 62.26311 21.69219 35594 ft 450 kts 309°
2026-05-07 09:09 62.28525 21.64365 35731 ft 450 kts 309°
2026-05-07 09:09 62.30710 21.59564 35863 ft 450 kts 309°
2026-05-07 09:09 62.32882 21.54783 35999 ft 451 kts 309°
2026-05-07 09:10 62.37248 21.45140 36067 ft 449 kts 308°
2026-05-07 09:10 62.41592 21.35504 36101 ft 448 kts 308°
2026-05-07 09:11 62.45936 21.25820 36073 ft 448 kts 308°
2026-05-07 09:11 62.50259 21.16139 36069 ft 448 kts 308°
2026-05-07 09:12 62.54590 21.06399 36073 ft 448 kts 308°
2026-05-07 09:12 62.58903 20.96657 36071 ft 449 kts 308°
2026-05-07 09:13 62.63225 20.86849 36069 ft 449 kts 308°
2026-05-07 09:13 62.67513 20.77077 36063 ft 449 kts 308°
2026-05-07 09:14 62.71813 20.67232 36064 ft 449 kts 308°
2026-05-07 09:14 62.76109 20.57350 36065 ft 449 kts 308°
2026-05-07 09:15 62.80405 20.47427 36081 ft 449 kts 308°
2026-05-07 09:15 62.84687 20.37485 36063 ft 451 kts 308°
2026-05-07 09:16 62.88983 20.27469 36062 ft 452 kts 308°
2026-05-07 09:16 62.93277 20.17413 36069 ft 452 kts 308°
2026-05-07 09:17 62.97576 20.07298 36061 ft 453 kts 308°
2026-05-07 09:17 63.01884 19.97115 36060 ft 453 kts 308°
2026-05-07 09:18 63.06140 19.87006 36053 ft 452 kts 308°
2026-05-07 09:18 63.10421 19.76794 36067 ft 452 kts 308°
2026-05-07 09:19 63.14680 19.66583 36057 ft 452 kts 308°
2026-05-07 09:19 63.18941 19.56323 36058 ft 452 kts 308°
2026-05-07 09:20 63.23189 19.46043 36066 ft 452 kts 308°
2026-05-07 09:20 63.27438 19.35714 36051 ft 452 kts 308°
2026-05-07 09:21 63.31657 19.25409 36049 ft 452 kts 308°
2026-05-07 09:21 63.35886 19.15029 36047 ft 453 kts 308°
2026-05-07 09:22 63.40112 19.04610 36048 ft 453 kts 308°
2026-05-07 09:22 63.44324 18.94175 36048 ft 452 kts 308°
2026-05-07 09:23 63.48520 18.83731 36048 ft 452 kts 308°
2026-05-07 09:23 63.52714 18.73244 36060 ft 452 kts 308°
2026-05-07 09:24 63.56903 18.62714 36034 ft 453 kts 308°
2026-05-07 09:24 63.61089 18.52145 36034 ft 453 kts 308°
2026-05-07 09:25 63.65282 18.41506 36034 ft 453 kts 307°
2026-05-07 09:25 63.69445 18.30892 36034 ft 452 kts 307°
2026-05-07 09:26 63.73611 18.20219 36039 ft 452 kts 307°
2026-05-07 09:26 63.77758 18.09542 36048 ft 452 kts 307°
2026-05-07 09:27 63.81897 17.98837 36047 ft 452 kts 307°
2026-05-07 09:28 63.88094 17.82713 36058 ft 452 kts 307°
2026-05-07 09:28 63.92219 17.71910 36048 ft 454 kts 307°
2026-05-07 09:29 63.96319 17.61118 36048 ft 454 kts 307°
2026-05-07 09:29 64.00437 17.50231 36071 ft 454 kts 307°
2026-05-07 09:30 64.04568 17.39253 36055 ft 454 kts 307°
2026-05-07 09:30 64.08666 17.28310 36054 ft 454 kts 307°
2026-05-07 09:31 64.12760 17.17325 36056 ft 454 kts 307°
2026-05-07 09:31 64.16842 17.06314 36056 ft 454 kts 307°
2026-05-07 09:32 64.20914 16.95277 36059 ft 454 kts 307°
2026-05-07 09:32 64.24982 16.84193 36053 ft 454 kts 307°
2026-05-07 09:33 64.29063 16.73022 36053 ft 453 kts 307°
2026-05-07 09:33 64.33095 16.61928 36041 ft 453 kts 307°
2026-05-07 09:34 64.37129 16.50771 36065 ft 453 kts 307°
2026-05-07 09:34 64.41156 16.39574 36045 ft 454 kts 307°
2026-05-07 09:35 64.45190 16.28306 36045 ft 454 kts 307°
2026-05-07 09:35 64.49211 16.17016 36048 ft 454 kts 307°
2026-05-07 09:36 64.53227 16.05681 36048 ft 454 kts 307°
2026-05-07 09:36 64.57222 15.94350 36050 ft 454 kts 307°
2026-05-07 09:37 64.61209 15.82982 36052 ft 453 kts 306°
2026-05-07 09:37 64.65186 15.71582 36053 ft 453 kts 306°
2026-05-07 09:38 64.69157 15.60145 36053 ft 453 kts 306°
2026-05-07 09:38 64.73133 15.48632 36052 ft 453 kts 306°
2026-05-07 09:39 64.77069 15.37176 36057 ft 453 kts 306°
2026-05-07 09:39 64.81016 15.25627 36056 ft 453 kts 306°
2026-05-07 09:40 64.84953 15.14049 36062 ft 453 kts 306°
2026-05-07 09:40 64.88887 15.02416 36065 ft 455 kts 306°
2026-05-07 09:41 64.92801 14.90784 36059 ft 455 kts 306°
2026-05-07 09:41 64.96717 14.79086 36064 ft 455 kts 306°
2026-05-07 09:42 65.00622 14.67360 36059 ft 454 kts 306°
2026-05-07 09:42 65.04528 14.55566 36066 ft 454 kts 306°
2026-05-07 09:43 65.08427 14.43732 36066 ft 454 kts 306°
2026-05-07 09:43 65.11644 14.33918 36066 ft 454 kts 306°
2026-05-07 09:44 65.15517 14.22047 36066 ft 454 kts 305°
2026-05-07 09:44 65.19372 14.10167 36068 ft 454 kts 306°
2026-05-07 09:45 65.23246 13.98166 36059 ft 454 kts 305°
2026-05-07 09:45 65.27089 13.86195 36059 ft 454 kts 305°
2026-05-07 09:46 65.30893 13.74280 36066 ft 454 kts 305°
2026-05-07 09:46 65.34724 13.62217 36052 ft 455 kts 305°
2026-05-07 09:47 65.38556 13.50088 36050 ft 456 kts 305°
2026-05-07 09:47 65.42371 13.37945 36035 ft 455 kts 305°
2026-05-07 09:48 65.46161 13.25816 36039 ft 455 kts 305°
2026-05-07 09:48 65.49948 13.13630 36041 ft 455 kts 305°
2026-05-07 09:49 65.53746 13.01341 36042 ft 455 kts 305°
2026-05-07 09:49 65.57512 12.89084 36047 ft 455 kts 304°
2026-05-07 09:50 65.61263 12.76812 36047 ft 455 kts 304°
2026-05-07 09:50 65.65010 12.64485 36052 ft 455 kts 304°
2026-05-07 09:51 65.68753 12.52101 36053 ft 454 kts 304°
2026-05-07 09:51 65.72459 12.39771 36046 ft 454 kts 304°
2026-05-07 09:52 65.76174 12.27346 36067 ft 454 kts 304°
2026-05-07 09:52 65.79870 12.14912 36055 ft 456 kts 304°
2026-05-07 09:53 65.83594 12.02315 36050 ft 456 kts 304°
2026-05-07 09:53 65.87292 11.89733 36058 ft 456 kts 304°
2026-05-07 09:54 65.90970 11.77146 36058 ft 456 kts 304°
2026-05-07 09:54 65.94628 11.64561 36044 ft 455 kts 304°
2026-05-07 09:55 65.98296 11.51867 36047 ft 455 kts 304°
2026-05-07 09:55 66.01953 11.39136 36046 ft 455 kts 303°
2026-05-07 09:56 66.05593 11.26392 36046 ft 455 kts 303°
2026-05-07 09:56 66.09234 11.13572 36047 ft 456 kts 303°
2026-05-07 09:57 66.12851 11.00763 36039 ft 456 kts 303°
2026-05-07 09:57 66.16459 10.87913 36041 ft 456 kts 303°
2026-05-07 09:58 66.20043 10.75072 36053 ft 456 kts 303°
2026-05-07 09:58 66.23641 10.62106 36033 ft 457 kts 303°
2026-05-07 09:59 66.27236 10.49075 36034 ft 457 kts 303°
2026-05-07 09:59 66.30812 10.36037 36024 ft 457 kts 303°
2026-05-07 10:00 66.34382 10.22942 36026 ft 457 kts 303°
2026-05-07 10:00 66.37935 10.09831 36021 ft 457 kts 303°
2026-05-07 10:01 66.41482 9.96668 36021 ft 457 kts 303°
2026-05-07 10:01 66.45014 9.83478 36035 ft 457 kts 302°
2026-05-07 10:02 66.48543 9.70223 36019 ft 457 kts 302°
2026-05-07 10:02 66.52054 9.56953 36020 ft 458 kts 302°
2026-05-07 10:03 66.55564 9.43609 36018 ft 458 kts 302°
2026-05-07 10:03 66.59059 9.30239 36018 ft 458 kts 302°
2026-05-07 10:04 66.62536 9.16859 36015 ft 458 kts 302°
2026-05-07 10:04 66.66009 9.03413 36013 ft 458 kts 302°
2026-05-07 10:05 66.69478 8.89896 36015 ft 459 kts 302°
2026-05-07 10:05 66.72940 8.76326 36013 ft 460 kts 302°
2026-05-07 10:06 66.76376 8.62633 36012 ft 459 kts 298°
2026-05-07 10:06 66.79306 8.48283 36012 ft 459 kts 296°
2026-05-07 10:07 66.82101 8.33812 36004 ft 459 kts 295°
2026-05-07 10:07 66.84872 8.19186 36006 ft 459 kts 295°
2026-05-07 10:08 66.87637 8.04515 36007 ft 459 kts 295°
2026-05-07 10:08 66.90389 7.89846 36006 ft 459 kts 295°
2026-05-07 10:09 66.93118 7.75208 36007 ft 459 kts 295°
2026-05-07 10:09 66.95840 7.60505 36007 ft 459 kts 294°
2026-05-07 10:10 66.98553 7.45740 36007 ft 459 kts 294°
2026-05-07 10:10 67.01263 7.30884 36006 ft 459 kts 294°
2026-05-07 10:11 67.03952 7.16033 36006 ft 459 kts 294°
2026-05-07 10:11 67.06617 7.01209 36015 ft 460 kts 294°
2026-05-07 10:12 67.09281 6.86279 36008 ft 460 kts 294°
2026-05-07 10:12 67.11914 6.71413 36009 ft 461 kts 294°
2026-05-07 10:13 67.14551 6.56409 36007 ft 461 kts 294°
2026-05-07 10:13 67.17177 6.41359 36016 ft 461 kts 293°
2026-05-07 10:14 67.19798 6.26221 36015 ft 460 kts 293°
2026-05-07 10:14 67.22385 6.11166 36018 ft 457 kts 293°
2026-05-07 10:15 67.24941 5.96174 36014 ft 457 kts 293°
2026-05-07 10:15 67.27495 5.81083 36020 ft 458 kts 293°
2026-05-07 10:16 67.30036 5.65951 36021 ft 459 kts 293°
2026-05-07 10:16 67.32554 5.50844 36019 ft 458 kts 292°
2026-05-07 10:17 67.35076 5.35586 36030 ft 458 kts 292°
2026-05-07 10:17 67.37557 5.20465 36028 ft 457 kts 292°
2026-05-07 10:18 67.40044 5.05187 36030 ft 458 kts 292°
2026-05-07 10:18 67.42516 4.89885 36030 ft 461 kts 292°
2026-05-07 10:19 67.44970 4.74568 36035 ft 459 kts 292°
2026-05-07 10:19 67.47412 4.59202 36032 ft 459 kts 292°
2026-05-07 10:20 67.49840 4.43806 36033 ft 460 kts 292°
2026-05-07 10:20 67.52279 4.28206 36042 ft 462 kts 291°
2026-05-07 10:21 67.54699 4.12605 36042 ft 464 kts 291°
2026-05-07 10:21 67.57101 3.96987 36045 ft 463 kts 291°
2026-05-07 10:22 67.59487 3.81347 36049 ft 462 kts 291°
2026-05-07 10:22 67.61856 3.65689 36044 ft 462 kts 291°
2026-05-07 10:23 67.64216 3.49957 36051 ft 463 kts 291°
2026-05-07 10:23 67.66552 3.34255 36057 ft 465 kts 291°
2026-05-07 10:24 67.68892 3.18393 36059 ft 464 kts 291°
2026-05-07 10:24 67.71210 3.02542 36058 ft 462 kts 290°
2026-05-07 10:25 67.73494 2.86787 36062 ft 463 kts 290°
2026-05-07 10:25 67.75779 2.70887 36061 ft 465 kts 290°
2026-05-07 10:26 67.78058 2.54895 36066 ft 465 kts 290°
2026-05-07 10:26 67.80313 2.38927 36067 ft 464 kts 290°
2026-05-07 10:27 67.82552 2.22931 36069 ft 464 kts 290°
2026-05-07 10:27 67.84782 2.06854 36068 ft 464 kts 290°
2026-05-07 10:28 67.86996 1.90751 36069 ft 466 kts 289°
2026-05-07 10:28 67.89182 1.74706 36076 ft 465 kts 289°
2026-05-07 10:29 67.91378 1.58444 36075 ft 465 kts 289°
2026-05-07 10:29 67.93534 1.42323 36077 ft 465 kts 289°
2026-05-07 10:30 67.96769 1.17864 36082 ft 466 kts 289°
2026-05-07 10:30 67.98886 1.01662 36087 ft 465 kts 289°
2026-05-07 10:31 68.01001 0.85324 36086 ft 465 kts 289°
2026-05-07 10:31 68.03091 0.69031 36087 ft 466 kts 289°
2026-05-07 10:32 68.05184 0.52558 36089 ft 467 kts 288°
2026-05-07 10:32 68.07239 0.36220 36091 ft 466 kts 288°
2026-05-07 10:33 68.09291 0.19754 36091 ft 466 kts 288°
2026-05-07 10:33 68.11317 0.03332 36090 ft 466 kts 288°
2026-05-07 10:34 68.13337 -0.13203 36094 ft 467 kts 288°
2026-05-07 10:34 68.15352 -0.29860 36094 ft 467 kts 288°
2026-05-07 10:35 68.17334 -0.46418 36096 ft 466 kts 288°
2026-05-07 10:35 68.19295 -0.62962 36099 ft 467 kts 287°
2026-05-07 10:36 68.21252 -0.79641 36104 ft 469 kts 287°
2026-05-07 10:36 68.23200 -0.96409 36102 ft 469 kts 287°
2026-05-07 10:37 68.25132 -1.13219 36102 ft 469 kts 287°
2026-05-07 10:37 68.27045 -1.30040 36107 ft 470 kts 287°
2026-05-07 10:38 68.28942 -1.46897 36099 ft 469 kts 287°
2026-05-07 10:38 68.30825 -1.63808 36104 ft 469 kts 287°
2026-05-07 10:39 68.32374 -1.77867 36105 ft 469 kts 287°
2026-05-07 10:39 68.34228 -1.94851 36108 ft 470 kts 286°
2026-05-07 10:40 68.36050 -2.11730 36111 ft 470 kts 286°
2026-05-07 10:40 68.37863 -2.28711 36111 ft 470 kts 286°
2026-05-07 10:41 68.39668 -2.45807 36114 ft 470 kts 286°
2026-05-07 10:41 68.41450 -2.62877 36113 ft 470 kts 286°
2026-05-07 10:42 68.43217 -2.79998 36118 ft 470 kts 285°
2026-05-07 10:42 68.44964 -2.97114 36117 ft 470 kts 285°
2026-05-07 10:43 68.46685 -3.14178 36118 ft 470 kts 285°
2026-05-07 10:43 68.48397 -3.31360 36118 ft 470 kts 285°
2026-05-07 10:44 68.50092 -3.48568 36120 ft 470 kts 285°
2026-05-07 10:44 68.51773 -3.65832 36123 ft 471 kts 285°
2026-05-07 10:45 68.53434 -3.83107 36121 ft 471 kts 285°
2026-05-07 10:45 68.55071 -4.00330 36125 ft 471 kts 284°
2026-05-07 10:46 68.56700 -4.17690 36124 ft 471 kts 284°
2026-05-07 10:46 68.58310 -4.35063 36132 ft 471 kts 284°
2026-05-07 10:47 68.59905 -4.52500 36132 ft 471 kts 284°
2026-05-07 10:47 68.61469 -4.69812 36129 ft 471 kts 284°
2026-05-07 10:48 68.63024 -4.87241 36129 ft 471 kts 284°
2026-05-07 10:48 68.64565 -5.04737 36129 ft 471 kts 284°
2026-05-07 10:49 68.66083 -5.22206 36137 ft 470 kts 284°
2026-05-07 10:49 68.67582 -5.39694 36138 ft 470 kts 283°
2026-05-07 10:50 68.69066 -5.57243 36140 ft 470 kts 283°
2026-05-07 10:50 68.70529 -5.74776 36140 ft 470 kts 283°
2026-05-07 10:51 68.71973 -5.92338 36143 ft 470 kts 283°
2026-05-07 10:51 68.73389 -6.09788 36146 ft 470 kts 283°
2026-05-07 10:52 68.74797 -6.27384 36145 ft 470 kts 283°
2026-05-07 10:52 68.76183 -6.44973 36149 ft 470 kts 282°
2026-05-07 10:53 68.77555 -6.62622 36148 ft 470 kts 283°
2026-05-07 10:53 68.78908 -6.80282 36154 ft 470 kts 282°
2026-05-07 10:54 68.80245 -6.97980 36152 ft 470 kts 282°
2026-05-07 10:54 68.81563 -7.15691 36158 ft 470 kts 282°
2026-05-07 10:55 68.82861 -7.33432 36157 ft 470 kts 282°
2026-05-07 10:55 68.84131 -7.51072 36156 ft 470 kts 282°
2026-05-07 10:56 68.85394 -7.68891 36162 ft 470 kts 282°
2026-05-07 10:56 68.86639 -7.86704 36162 ft 470 kts 282°
2026-05-07 10:57 68.87866 -8.04504 36176 ft 470 kts 281°
2026-05-07 10:57 68.89065 -8.22222 36161 ft 470 kts 281°
2026-05-07 10:58 68.90249 -8.40060 36167 ft 470 kts 281°
2026-05-07 10:58 68.91420 -8.57930 36187 ft 470 kts 281°
2026-05-07 10:59 68.92573 -8.75847 36192 ft 470 kts 281°
2026-05-07 10:59 68.93703 -8.93747 36177 ft 470 kts 281°
2026-05-07 11:00 68.94814 -9.11651 36175 ft 470 kts 281°
2026-05-07 11:00 68.95906 -9.29606 36196 ft 471 kts 281°
2026-05-07 11:01 68.96975 -9.47493 36186 ft 471 kts 280°
2026-05-07 11:01 68.98035 -9.65461 36196 ft 471 kts 280°
2026-05-07 11:02 68.99066 -9.83455 36202 ft 471 kts 281°
2026-05-07 11:02 69.00061 -10.01541 36201 ft 471 kts 279°
2026-05-07 11:03 69.00686 -10.19771 36204 ft 472 kts 276°
2026-05-07 11:03 69.01126 -10.37991 36201 ft 472 kts 275°
2026-05-07 11:04 69.01566 -10.56323 36200 ft 472 kts 275°
2026-05-07 11:04 69.02010 -10.74523 36193 ft 472 kts 275°
2026-05-07 11:05 69.02456 -10.92786 36215 ft 472 kts 275°
2026-05-07 11:05 69.02886 -11.11080 36210 ft 472 kts 275°
2026-05-07 11:06 69.03292 -11.29359 36211 ft 472 kts 275°
2026-05-07 11:06 69.03677 -11.47615 36212 ft 472 kts 275°
2026-05-07 11:07 69.04040 -11.65933 36218 ft 472 kts 275°
2026-05-07 11:07 69.04391 -11.84219 36215 ft 472 kts 274°
2026-05-07 11:08 69.04716 -12.02572 36223 ft 472 kts 274°
2026-05-07 11:08 69.05023 -12.20828 36228 ft 472 kts 274°
2026-05-07 11:09 69.05312 -12.39141 36230 ft 472 kts 274°
2026-05-07 11:09 69.05586 -12.57458 36238 ft 472 kts 274°
2026-05-07 11:10 69.05839 -12.75814 36233 ft 472 kts 274°
2026-05-07 11:10 69.06069 -12.94140 36244 ft 473 kts 273°
2026-05-07 11:11 69.06274 -13.12546 36236 ft 473 kts 273°
2026-05-07 11:11 69.06465 -13.30941 36249 ft 472 kts 273°
2026-05-07 11:12 69.06637 -13.49178 36253 ft 472 kts 273°
2026-05-07 11:12 69.06788 -13.67553 36251 ft 472 kts 273°
2026-05-07 11:13 69.06919 -13.85890 36253 ft 472 kts 273°
2026-05-07 11:13 69.07031 -14.04319 36255 ft 473 kts 272°
2026-05-07 11:14 69.07121 -14.22704 36255 ft 472 kts 272°
2026-05-07 11:14 69.07194 -14.41096 36267 ft 472 kts 272°
2026-05-07 11:15 69.07249 -14.59426 36272 ft 472 kts 272°
2026-05-07 11:15 69.07284 -14.77721 36263 ft 472 kts 272°
2026-05-07 11:16 69.07298 -14.96059 36277 ft 472 kts 272°
2026-05-07 11:16 69.07293 -15.14439 36272 ft 472 kts 271°
2026-05-07 11:17 69.07265 -15.32832 36274 ft 472 kts 272°
2026-05-07 11:17 69.07221 -15.51160 36277 ft 472 kts 271°
2026-05-07 11:18 69.07157 -15.69470 36279 ft 472 kts 271°
2026-05-07 11:18 69.07073 -15.87833 36296 ft 472 kts 271°
2026-05-07 11:19 69.06970 -16.06152 36288 ft 472 kts 271°
2026-05-07 11:19 69.06846 -16.24530 36294 ft 472 kts 271°
2026-05-07 11:20 69.06702 -16.42882 36290 ft 471 kts 271°
2026-05-07 11:20 69.06540 -16.61208 36295 ft 471 kts 271°
2026-05-07 11:21 69.06360 -16.79427 36296 ft 472 kts 270°
2026-05-07 11:21 69.06158 -16.97796 36299 ft 472 kts 270°
2026-05-07 11:22 69.05937 -17.16142 36296 ft 472 kts 270°
2026-05-07 11:22 69.05694 -17.34496 36301 ft 472 kts 270°
2026-05-07 11:23 69.05434 -17.52798 36308 ft 471 kts 270°
2026-05-07 11:23 69.05156 -17.71080 36308 ft 471 kts 270°
2026-05-07 11:24 69.04858 -17.89315 36311 ft 472 kts 270°
2026-05-07 11:24 69.04540 -18.07585 36314 ft 472 kts 269°
2026-05-07 11:25 69.04202 -18.25872 36295 ft 472 kts 269°
2026-05-07 11:25 69.03841 -18.44243 36317 ft 472 kts 269°
2026-05-07 11:26 69.03466 -18.62477 36314 ft 472 kts 269°
2026-05-07 11:26 69.03071 -18.80707 36319 ft 472 kts 269°
2026-05-07 11:27 69.02656 -18.98949 36319 ft 472 kts 269°
2026-05-07 11:27 69.02219 -19.17251 36325 ft 472 kts 269°
2026-05-07 11:28 69.01841 -19.32460 36309 ft 472 kts 269°
2026-05-07 11:28 69.01290 -19.53709 36327 ft 472 kts 269°
2026-05-07 11:29 69.00797 -19.71927 36327 ft 472 kts 268°
2026-05-07 11:29 69.00368 -19.87228 36327 ft 472 kts 268°
2026-05-07 11:30 68.99770 -20.05346 36327 ft 473 kts 265°
2026-05-07 11:30 68.98788 -20.23504 36327 ft 474 kts 263°
2026-05-07 11:31 68.97688 -20.41583 36320 ft 474 kts 263°
2026-05-07 11:31 68.96592 -20.59695 36327 ft 473 kts 263°
2026-05-07 11:32 68.94967 -20.86737 36331 ft 473 kts 263°
2026-05-07 11:33 68.93866 -21.04773 36329 ft 473 kts 263°
2026-05-07 11:33 68.92748 -21.22749 36325 ft 473 kts 263°
2026-05-07 11:34 68.91607 -21.40755 36328 ft 473 kts 263°
2026-05-07 11:34 68.90446 -21.58738 36328 ft 473 kts 263°
2026-05-07 11:35 68.89263 -21.76747 36329 ft 474 kts 262°
2026-05-07 11:35 68.88064 -21.94701 36325 ft 474 kts 262°
2026-05-07 11:36 68.86847 -22.12622 36324 ft 474 kts 262°
2026-05-07 11:36 68.85608 -22.30577 36300 ft 474 kts 262°
2026-05-07 11:37 68.84360 -22.48350 36323 ft 473 kts 262°
2026-05-07 11:37 68.83085 -22.66235 36322 ft 473 kts 262°
2026-05-07 11:38 68.81790 -22.84115 36321 ft 473 kts 262°
2026-05-07 11:38 68.80487 -23.01840 36322 ft 473 kts 261°
2026-05-07 11:39 68.79154 -23.19682 36316 ft 473 kts 261°
2026-05-07 11:39 68.77800 -23.37513 36321 ft 473 kts 261°
2026-05-07 11:40 68.76433 -23.55273 36323 ft 473 kts 261°
2026-05-07 11:40 68.75055 -23.72923 36313 ft 473 kts 261°
2026-05-07 11:41 68.73649 -23.90674 36318 ft 473 kts 261°
2026-05-07 11:41 68.72228 -24.08341 36322 ft 473 kts 261°
2026-05-07 11:42 68.70785 -24.26035 36303 ft 473 kts 261°
2026-05-07 11:42 68.69331 -24.43603 36318 ft 473 kts 261°
2026-05-07 11:43 68.67846 -24.61313 36321 ft 473 kts 260°
2026-05-07 11:43 68.66360 -24.78805 36320 ft 473 kts 260°
2026-05-07 11:44 68.64845 -24.96400 36323 ft 473 kts 260°
2026-05-07 11:44 68.63310 -25.13976 36324 ft 473 kts 260°
2026-05-07 11:45 68.61757 -25.31515 36320 ft 473 kts 260°
2026-05-07 11:45 68.60189 -25.49005 36328 ft 473 kts 260°
2026-05-07 11:46 68.58605 -25.66458 36325 ft 473 kts 259°
2026-05-07 11:46 68.57001 -25.83899 36320 ft 473 kts 259°
2026-05-07 11:47 68.55378 -26.01327 36327 ft 472 kts 259°
2026-05-07 11:47 68.53749 -26.18598 36296 ft 472 kts 259°
2026-05-07 11:48 68.52092 -26.35957 36328 ft 472 kts 259°
2026-05-07 11:48 68.50417 -26.53289 36327 ft 472 kts 259°
2026-05-07 11:49 68.48734 -26.70488 36321 ft 465 kts 259°
2026-05-07 11:49 68.47066 -26.87291 36323 ft 456 kts 259°
2026-05-07 11:50 68.45401 -27.03944 36328 ft 455 kts 259°
2026-05-07 11:50 68.43722 -27.20548 36318 ft 456 kts 259°
2026-05-07 11:51 68.42026 -27.37128 36322 ft 456 kts 259°
2026-05-07 11:51 68.40321 -27.53594 36322 ft 456 kts 258°
2026-05-07 11:52 68.38590 -27.70133 36319 ft 456 kts 258°
2026-05-07 11:52 68.36844 -27.86632 36319 ft 456 kts 258°
2026-05-07 11:53 68.35075 -28.03167 36322 ft 456 kts 258°
2026-05-07 11:53 68.33297 -28.19608 36319 ft 456 kts 258°
2026-05-07 11:54 68.31504 -28.36008 36317 ft 456 kts 258°
2026-05-07 11:54 68.29687 -28.52469 36317 ft 456 kts 258°
2026-05-07 11:55 68.27866 -28.68779 36318 ft 456 kts 258°
2026-05-07 11:55 68.26020 -28.85156 36316 ft 456 kts 258°
2026-05-07 11:56 68.24157 -29.01498 36292 ft 456 kts 258°
2026-05-07 11:56 68.22276 -29.17842 36317 ft 457 kts 258°
2026-05-07 11:57 68.20377 -29.34182 36319 ft 457 kts 258°
2026-05-07 11:57 68.18461 -29.50492 36319 ft 457 kts 257°
2026-05-07 11:58 68.16561 -29.66503 36319 ft 457 kts 257°
2026-05-07 11:58 68.14611 -29.82783 36320 ft 457 kts 257°
2026-05-07 11:59 68.12648 -29.99011 36303 ft 458 kts 257°
2026-05-07 11:59 68.10675 -30.15166 36322 ft 459 kts 257°
2026-05-07 12:00 68.08671 -30.31409 36324 ft 459 kts 257°
2026-05-07 12:00 68.06656 -30.47584 36322 ft 459 kts 257°
2026-05-07 12:01 68.04630 -30.63699 36310 ft 459 kts 257°
2026-05-07 12:01 68.02575 -30.79881 36312 ft 459 kts 257°
2026-05-07 12:02 68.00511 -30.95988 36316 ft 458 kts 257°
2026-05-07 12:02 67.98468 -31.12039 36314 ft 457 kts 257°
2026-05-07 12:03 67.96440 -31.28114 36315 ft 457 kts 257°
2026-05-07 12:03 67.94401 -31.44150 36314 ft 458 kts 257°
2026-05-07 12:04 67.92352 -31.60070 36314 ft 458 kts 257°
2026-05-07 12:04 67.90272 -31.76067 36295 ft 458 kts 257°
2026-05-07 12:05 67.88168 -31.92094 36315 ft 459 kts 257°
2026-05-07 12:05 67.86050 -32.08075 36314 ft 459 kts 257°
2026-05-07 12:06 67.83931 -32.23926 36317 ft 459 kts 257°
2026-05-07 12:06 67.81781 -32.39860 36316 ft 459 kts 257°
2026-05-07 12:07 67.79610 -32.55811 36316 ft 460 kts 257°
2026-05-07 12:07 67.77428 -32.71697 36314 ft 460 kts 257°
2026-05-07 12:08 67.75226 -32.87595 36299 ft 461 kts 257°
2026-05-07 12:08 67.73017 -33.03392 36305 ft 461 kts 257°
2026-05-07 12:09 67.70779 -33.19250 36302 ft 461 kts 256°
2026-05-07 12:09 67.68532 -33.35050 36292 ft 461 kts 256°
2026-05-07 12:10 67.66261 -33.50861 36262 ft 461 kts 256°
2026-05-07 12:10 67.63987 -33.66571 36297 ft 462 kts 256°
2026-05-07 12:11 67.61680 -33.82370 36298 ft 463 kts 256°
2026-05-07 12:11 67.59364 -33.98094 36289 ft 463 kts 256°
2026-05-07 12:12 67.57024 -34.13844 36292 ft 463 kts 256°
2026-05-07 12:12 67.54685 -34.29453 36276 ft 463 kts 256°
2026-05-07 12:13 67.52319 -34.45115 36271 ft 464 kts 255°
2026-05-07 12:13 67.49939 -34.60747 36250 ft 464 kts 255°
2026-05-07 12:14 67.47533 -34.76403 36255 ft 464 kts 255°
2026-05-07 12:14 67.45114 -34.92025 36225 ft 464 kts 255°
2026-05-07 12:15 67.42690 -35.07544 36228 ft 464 kts 255°
2026-05-07 12:15 67.40231 -35.23153 36175 ft 464 kts 255°
2026-05-07 12:16 67.37777 -35.38624 36212 ft 466 kts 255°
2026-05-07 12:16 67.35281 -35.54224 36214 ft 467 kts 254°
2026-05-07 12:17 67.32786 -35.69685 36210 ft 467 kts 254°
2026-05-07 12:17 67.30252 -35.85260 36209 ft 467 kts 254°
2026-05-07 12:18 67.27716 -36.00728 36200 ft 467 kts 254°
2026-05-07 12:18 67.25157 -36.16216 36210 ft 469 kts 253°
2026-05-07 12:19 67.22583 -36.31681 36196 ft 472 kts 253°
2026-05-07 12:19 67.19969 -36.47245 36197 ft 472 kts 253°
2026-05-07 12:20 67.17347 -36.62727 36190 ft 472 kts 253°
2026-05-07 12:20 67.14713 -36.78163 36191 ft 472 kts 253°
2026-05-07 12:21 67.12072 -36.93524 36212 ft 471 kts 252°
2026-05-07 12:21 67.10724 -37.01328 36331 ft 473 kts 252°
2026-05-07 12:21 67.09390 -37.09017 36411 ft 476 kts 252°
2026-05-07 12:22 67.07121 -37.22039 36538 ft 480 kts 251°
2026-05-07 12:22 67.05757 -37.29816 36677 ft 481 kts 251°
2026-05-07 12:22 67.04388 -37.37581 36853 ft 481 kts 251°
2026-05-07 12:22 67.02545 -37.47985 37153 ft 479 kts 251°
2026-05-07 12:23 67.01625 -37.53160 37307 ft 478 kts 250°
2026-05-07 12:23 67.00251 -37.60861 37561 ft 477 kts 250°
2026-05-07 12:23 66.98861 -37.68628 37809 ft 476 kts 250°
2026-05-07 12:23 66.97038 -37.78774 38062 ft 473 kts 250°
2026-05-07 12:24 66.96119 -37.83873 38187 ft 473 kts 250°
2026-05-07 12:24 66.93383 -37.98962 38242 ft 468 kts 250°
2026-05-07 12:25 66.90647 -38.13947 38244 ft 466 kts 250°
2026-05-07 12:25 66.87897 -38.28911 38265 ft 467 kts 249°
2026-05-07 12:26 66.85129 -38.43849 38268 ft 467 kts 249°
2026-05-07 12:26 66.82335 -38.58820 38269 ft 467 kts 249°
2026-05-07 12:27 66.79559 -38.73580 38301 ft 465 kts 249°
2026-05-07 12:27 66.76760 -38.88354 38300 ft 465 kts 249°
2026-05-07 12:28 66.73955 -39.03061 38300 ft 465 kts 249°
2026-05-07 12:28 66.71112 -39.17861 38299 ft 465 kts 249°
2026-05-07 12:29 66.68277 -39.32510 38334 ft 465 kts 248°
2026-05-07 12:29 66.65432 -39.47100 38308 ft 463 kts 248°
2026-05-07 12:30 66.62595 -39.61555 38315 ft 463 kts 248°
2026-05-07 12:30 66.59731 -39.76049 38317 ft 462 kts 248°
2026-05-07 12:31 66.56853 -39.90509 38303 ft 463 kts 248°
2026-05-07 12:31 66.53958 -40.04956 38305 ft 463 kts 248°
2026-05-07 12:32 66.51051 -40.19365 38290 ft 462 kts 247°
2026-05-07 12:32 66.48147 -40.33654 38294 ft 461 kts 247°
2026-05-07 12:33 66.43760 -40.55062 38286 ft 461 kts 247°
2026-05-07 12:33 66.40824 -40.69274 38287 ft 461 kts 247°
2026-05-07 12:34 66.37854 -40.83548 38275 ft 461 kts 246°
2026-05-07 12:34 66.34885 -40.97719 38269 ft 461 kts 246°
2026-05-07 12:35 66.31928 -41.11740 38278 ft 459 kts 246°
2026-05-07 12:35 66.28946 -41.25791 38278 ft 459 kts 245°
2026-05-07 12:36 66.25953 -41.39798 38276 ft 459 kts 245°
2026-05-07 12:36 66.22946 -41.53781 38276 ft 459 kts 245°
2026-05-07 12:37 66.19920 -41.67757 38276 ft 459 kts 245°
2026-05-07 12:37 66.16892 -41.81653 38278 ft 460 kts 244°
2026-05-07 12:38 66.13853 -41.95508 38276 ft 460 kts 244°
2026-05-07 12:38 66.10783 -42.09412 38278 ft 460 kts 244°
2026-05-07 12:39 66.07712 -42.23235 38273 ft 460 kts 244°
2026-05-07 12:39 66.04627 -42.37030 38273 ft 460 kts 244°
2026-05-07 12:40 66.01531 -42.50786 38283 ft 460 kts 243°
2026-05-07 12:40 65.98438 -42.64444 38282 ft 460 kts 243°
2026-05-07 12:41 65.95299 -42.78213 38278 ft 460 kts 243°
2026-05-07 12:41 65.92166 -42.91869 38273 ft 461 kts 243°
2026-05-07 12:42 65.89019 -43.05499 38278 ft 460 kts 243°
2026-05-07 12:42 65.85855 -43.19121 38249 ft 460 kts 242°
2026-05-07 12:43 65.82690 -43.32644 38276 ft 459 kts 241°
2026-05-07 12:43 65.79521 -43.46116 38276 ft 458 kts 241°
2026-05-07 12:44 65.76345 -43.59543 38276 ft 458 kts 241°
2026-05-07 12:44 65.73148 -43.72973 38276 ft 458 kts 240°
2026-05-07 12:45 65.69965 -43.86257 38270 ft 458 kts 240°
2026-05-07 12:45 65.66754 -43.99580 38249 ft 457 kts 240°
2026-05-07 12:46 65.63540 -44.12830 38238 ft 455 kts 239°
2026-05-07 12:46 65.60316 -44.26042 38238 ft 455 kts 239°
2026-05-07 12:47 65.57091 -44.39176 38224 ft 455 kts 239°
2026-05-07 12:47 65.53848 -44.52307 38224 ft 455 kts 239°
2026-05-07 12:48 65.50587 -44.65433 38205 ft 455 kts 238°
2026-05-07 12:48 65.47345 -44.78407 38213 ft 451 kts 238°
2026-05-07 12:49 65.44104 -44.91298 38214 ft 450 kts 238°
2026-05-07 12:49 65.40857 -45.04141 38211 ft 450 kts 238°
2026-05-07 12:50 65.37577 -45.17035 38211 ft 450 kts 238°
2026-05-07 12:50 65.34324 -45.29751 38215 ft 450 kts 238°
2026-05-07 12:51 65.31038 -45.42522 38218 ft 447 kts 237°
2026-05-07 12:51 65.27786 -45.55089 38219 ft 444 kts 237°
2026-05-07 12:52 65.24538 -45.67567 38219 ft 443 kts 237°
2026-05-07 12:52 65.21268 -45.80055 38216 ft 443 kts 237°
2026-05-07 12:53 65.17982 -45.92539 38216 ft 443 kts 237°
2026-05-07 12:53 65.14720 -46.04864 38217 ft 444 kts 236°
2026-05-07 12:54 65.11412 -46.17294 38212 ft 442 kts 236°
2026-05-07 12:54 65.08133 -46.29545 38212 ft 441 kts 236°
2026-05-07 12:55 65.04828 -46.41822 38212 ft 441 kts 236°
2026-05-07 12:55 65.01523 -46.54035 38211 ft 441 kts 236°
2026-05-07 12:56 64.98219 -46.66176 38209 ft 441 kts 235°
2026-05-07 12:56 64.94894 -46.78329 38207 ft 441 kts 235°
2026-05-07 12:57 64.91544 -46.90476 38197 ft 441 kts 234°
2026-05-07 12:57 64.88207 -47.02546 38197 ft 442 kts 234°
2026-05-07 12:58 64.84842 -47.14660 38189 ft 442 kts 234°
2026-05-07 12:58 64.81473 -47.26717 38189 ft 442 kts 234°
2026-05-07 12:59 64.78076 -47.38801 38191 ft 442 kts 234°
2026-05-07 12:59 64.74699 -47.50751 38181 ft 442 kts 234°
2026-05-07 13:00 64.71287 -47.62762 38184 ft 442 kts 233°
2026-05-07 13:00 64.67894 -47.74640 38173 ft 442 kts 233°
2026-05-07 13:01 64.64462 -47.86584 38170 ft 442 kts 233°
2026-05-07 13:01 64.61025 -47.98486 38164 ft 442 kts 233°
2026-05-07 13:02 64.57595 -48.10303 38168 ft 442 kts 233°
2026-05-07 13:02 64.54148 -48.22118 38154 ft 440 kts 233°
2026-05-07 13:03 64.50713 -48.33829 38154 ft 439 kts 233°
2026-05-07 13:03 64.47266 -48.45517 38151 ft 440 kts 233°
2026-05-07 13:04 64.43814 -48.57161 38151 ft 439 kts 233°
2026-05-07 13:04 64.40355 -48.68771 38152 ft 439 kts 233°
2026-05-07 13:05 64.36858 -48.80447 38151 ft 441 kts 233°
2026-05-07 13:05 64.33365 -48.92048 38150 ft 443 kts 233°
2026-05-07 13:06 64.29829 -49.03735 38136 ft 443 kts 233°
2026-05-07 13:06 64.26318 -49.15276 38145 ft 442 kts 233°
2026-05-07 13:07 64.22772 -49.26875 38130 ft 442 kts 233°
2026-05-07 13:07 64.19218 -49.38438 38141 ft 441 kts 232°
2026-05-07 13:08 64.15707 -49.49810 38118 ft 435 kts 232°
2026-05-07 13:08 64.12201 -49.61101 38115 ft 434 kts 232°
2026-05-07 13:09 64.08693 -49.72341 38109 ft 434 kts 232°
2026-05-07 13:09 64.05178 -49.83550 38106 ft 432 kts 232°
2026-05-07 13:10 64.01670 -49.94684 38114 ft 432 kts 232°
2026-05-07 13:10 63.98599 -50.06447 38147 ft 435 kts 238°
2026-05-07 13:11 63.95850 -50.18738 38112 ft 436 kts 239°
2026-05-07 13:11 63.93161 -50.31096 38114 ft 435 kts 239°
2026-05-07 13:12 63.90468 -50.43393 38109 ft 435 kts 239°
2026-05-07 13:12 63.87754 -50.55637 38118 ft 435 kts 239°
2026-05-07 13:13 63.85023 -50.67858 38122 ft 435 kts 238°
2026-05-07 13:13 63.82277 -50.80065 38109 ft 435 kts 239°
2026-05-07 13:14 63.79530 -50.92215 38116 ft 435 kts 238°
2026-05-07 13:14 63.76766 -51.04373 38114 ft 435 kts 238°
2026-05-07 13:15 63.73991 -51.16509 38133 ft 435 kts 238°
2026-05-07 13:15 63.71204 -51.28632 38127 ft 435 kts 238°
2026-05-07 13:16 63.68400 -51.40759 38129 ft 435 kts 238°
2026-05-07 13:16 63.65595 -51.52821 38118 ft 436 kts 238°
2026-05-07 13:17 63.63252 -51.62846 38119 ft 436 kts 238°
2026-05-07 13:17 63.60416 -51.74922 38108 ft 436 kts 238°
2026-05-07 13:18 63.57585 -51.86910 38104 ft 436 kts 238°
2026-05-07 13:18 63.54725 -51.98946 38090 ft 437 kts 237°
2026-05-07 13:19 63.51847 -52.10995 38085 ft 438 kts 237°
2026-05-07 13:19 63.48966 -52.22996 38085 ft 437 kts 238°
2026-05-07 13:20 63.46075 -52.34965 38076 ft 437 kts 237°
2026-05-07 13:20 63.43182 -52.46874 38077 ft 437 kts 237°
2026-05-07 13:21 63.40278 -52.58770 38061 ft 437 kts 237°
2026-05-07 13:21 63.37360 -52.70665 38050 ft 437 kts 237°
2026-05-07 13:22 63.34449 -52.82466 38053 ft 437 kts 237°
2026-05-07 13:22 63.31516 -52.94290 38038 ft 437 kts 236°
2026-05-07 13:23 63.28567 -53.06112 38038 ft 436 kts 236°
2026-05-07 13:23 63.25612 -53.17894 38037 ft 436 kts 236°
2026-05-07 13:24 63.22655 -53.29618 38038 ft 436 kts 237°
2026-05-07 13:24 63.19673 -53.41379 38018 ft 436 kts 236°
2026-05-07 13:25 63.16711 -53.53005 38017 ft 436 kts 237°
2026-05-07 13:25 63.13715 -53.64703 38015 ft 436 kts 237°
2026-05-07 13:26 63.10735 -53.76279 38012 ft 436 kts 236°
2026-05-07 13:26 63.07710 -53.87958 38009 ft 438 kts 236°
2026-05-07 13:27 63.04683 -53.99595 37995 ft 439 kts 236°
2026-05-07 13:27 63.01627 -54.11276 37982 ft 439 kts 236°
2026-05-07 13:28 62.98587 -54.22837 37991 ft 439 kts 236°
2026-05-07 13:28 62.95518 -54.34450 37977 ft 439 kts 236°
2026-05-07 13:29 62.92438 -54.46045 37975 ft 439 kts 235°
2026-05-07 13:29 62.89345 -54.57624 37974 ft 439 kts 235°
2026-05-07 13:30 62.86251 -54.69153 37972 ft 439 kts 235°
2026-05-07 13:30 62.83150 -54.80640 37957 ft 439 kts 235°
2026-05-07 13:31 62.80034 -54.92130 37950 ft 439 kts 236°
2026-05-07 13:31 62.76921 -55.03549 37947 ft 440 kts 236°
2026-05-07 13:32 62.73770 -55.15050 37946 ft 440 kts 236°
2026-05-07 13:32 62.70620 -55.26486 37939 ft 440 kts 236°
2026-05-07 13:33 62.67455 -55.37923 37941 ft 440 kts 235°
2026-05-07 13:33 62.64304 -55.49248 37935 ft 441 kts 235°
2026-05-07 13:34 62.59499 -55.66407 37927 ft 442 kts 235°
2026-05-07 13:35 62.56304 -55.77749 37924 ft 442 kts 235°
2026-05-07 13:35 62.53085 -55.89119 37922 ft 442 kts 235°
2026-05-07 13:36 62.49735 -56.00237 37920 ft 439 kts 228°
2026-05-07 13:36 62.45821 -56.10373 37919 ft 438 kts 226°
2026-05-07 13:37 62.41811 -56.20215 37909 ft 437 kts 226°
2026-05-07 13:37 62.37779 -56.29991 37908 ft 436 kts 226°
2026-05-07 13:38 62.33748 -56.39756 37908 ft 436 kts 226°
2026-05-07 13:38 62.29702 -56.49544 37903 ft 437 kts 226°
2026-05-07 13:39 62.25684 -56.59234 37906 ft 437 kts 225°
2026-05-07 13:39 62.21624 -56.68982 37909 ft 436 kts 226°
2026-05-07 13:40 62.17594 -56.78614 37903 ft 435 kts 225°
2026-05-07 13:40 62.13530 -56.88286 37900 ft 435 kts 225°
2026-05-07 13:41 62.09482 -56.97875 37900 ft 435 kts 225°
2026-05-07 13:41 62.05427 -57.07441 37900 ft 435 kts 225°
2026-05-07 13:42 62.01359 -57.16996 37898 ft 435 kts 225°
2026-05-07 13:42 61.97299 -57.26493 37892 ft 434 kts 225°
2026-05-07 13:43 61.93251 -57.35921 37889 ft 433 kts 225°
2026-05-07 13:43 61.89186 -57.45350 37889 ft 433 kts 225°
2026-05-07 13:44 61.85115 -57.54751 37889 ft 433 kts 225°
2026-05-07 13:44 61.81040 -57.64122 37889 ft 433 kts 225°
2026-05-07 13:45 61.76952 -57.73482 37892 ft 433 kts 225°
2026-05-07 13:45 61.72845 -57.82846 37889 ft 436 kts 225°
2026-05-07 13:46 61.68711 -57.92233 37884 ft 437 kts 225°
2026-05-07 13:46 61.64579 -58.01577 37885 ft 437 kts 225°
2026-05-07 13:47 61.60442 -58.10893 37885 ft 437 kts 224°
2026-05-07 13:47 61.56284 -58.20215 37893 ft 437 kts 225°
2026-05-07 13:48 61.52118 -58.29516 37879 ft 437 kts 224°
2026-05-07 13:48 61.47954 -58.38775 37877 ft 437 kts 224°
2026-05-07 13:49 61.43787 -58.48003 37873 ft 437 kts 224°
2026-05-07 13:49 61.39628 -58.57171 37876 ft 437 kts 224°
2026-05-07 13:50 61.35426 -58.66399 37874 ft 437 kts 224°
2026-05-07 13:50 61.31228 -58.75579 37873 ft 437 kts 224°
2026-05-07 13:51 61.27037 -58.84704 37869 ft 437 kts 224°
2026-05-07 13:51 61.22853 -58.93780 37871 ft 437 kts 224°
2026-05-07 13:52 61.18644 -59.02870 37872 ft 437 kts 224°
2026-05-07 13:52 61.14427 -59.11939 37868 ft 437 kts 224°
2026-05-07 13:53 61.10209 -59.20976 37863 ft 437 kts 224°
2026-05-07 13:53 61.05980 -59.29997 37860 ft 437 kts 224°
2026-05-07 13:54 61.01773 -59.38935 37860 ft 436 kts 224°
2026-05-07 13:54 60.97544 -59.47885 37854 ft 436 kts 224°
2026-05-07 13:55 60.93280 -59.56870 37854 ft 436 kts 224°
2026-05-07 13:55 60.89056 -59.65735 37853 ft 436 kts 224°
2026-05-07 13:56 60.84796 -59.74640 37849 ft 435 kts 224°
2026-05-07 13:56 60.80578 -59.83423 37849 ft 435 kts 224°
2026-05-07 13:57 60.76313 -59.92268 37849 ft 435 kts 224°
2026-05-07 13:57 60.72071 -60.01030 37843 ft 435 kts 224°
2026-05-07 13:58 60.67810 -60.09794 37854 ft 435 kts 224°
2026-05-07 13:58 60.63541 -60.18541 37834 ft 436 kts 223°
2026-05-07 13:59 60.59266 -60.27267 37834 ft 436 kts 223°
2026-05-07 13:59 60.54990 -60.35959 37832 ft 436 kts 223°
2026-05-07 14:00 60.50671 -60.44705 37833 ft 436 kts 223°
2026-05-07 14:00 60.46383 -60.53353 37835 ft 436 kts 223°
2026-05-07 14:01 60.42080 -60.61995 37830 ft 434 kts 223°
2026-05-07 14:01 60.37796 -60.70568 37829 ft 433 kts 223°
2026-05-07 14:02 60.33528 -60.79074 37825 ft 433 kts 223°
2026-05-07 14:02 60.29249 -60.87567 37826 ft 433 kts 223°
2026-05-07 14:03 60.24933 -60.96103 37825 ft 433 kts 223°
2026-05-07 14:03 60.20662 -61.04517 37815 ft 432 kts 223°
2026-05-07 14:04 60.16357 -61.12965 37813 ft 431 kts 223°
2026-05-07 14:04 60.12074 -61.21338 37815 ft 431 kts 223°
2026-05-07 14:05 60.07772 -61.29715 37818 ft 431 kts 223°
2026-05-07 14:05 60.03453 -61.38093 37818 ft 431 kts 223°
2026-05-07 14:06 59.99160 -61.46388 37817 ft 431 kts 223°
2026-05-07 14:06 59.94834 -61.54717 37814 ft 431 kts 223°
2026-05-07 14:07 59.90505 -61.63019 37812 ft 431 kts 222°
2026-05-07 14:07 59.86198 -61.71246 37813 ft 431 kts 222°
2026-05-07 14:08 59.81867 -61.79490 37814 ft 431 kts 222°
2026-05-07 14:08 59.77517 -61.87738 37805 ft 430 kts 222°
2026-05-07 14:09 59.73194 -61.95904 37799 ft 428 kts 222°
2026-05-07 14:09 59.68900 -62.03986 37801 ft 427 kts 222°
2026-05-07 14:10 59.65307 -62.10723 37800 ft 427 kts 222°
2026-05-07 14:10 59.60268 -62.20136 37799 ft 427 kts 222°
2026-05-07 14:11 59.56692 -62.26793 37796 ft 427 kts 221°
2026-05-07 14:11 59.52364 -62.34824 37798 ft 426 kts 221°
2026-05-07 14:12 59.48044 -62.42809 37796 ft 425 kts 221°
2026-05-07 14:12 59.43755 -62.50708 37793 ft 425 kts 221°
2026-05-07 14:13 59.39427 -62.58649 37793 ft 425 kts 221°
2026-05-07 14:13 59.35108 -62.66543 37793 ft 425 kts 221°
2026-05-07 14:14 59.30778 -62.74432 37788 ft 424 kts 221°
2026-05-07 14:14 59.26462 -62.82265 37785 ft 424 kts 221°
2026-05-07 14:15 59.22132 -62.90095 37790 ft 424 kts 221°
2026-05-07 14:15 59.17822 -62.97861 37790 ft 424 kts 221°
2026-05-07 14:16 59.13488 -63.05643 37788 ft 424 kts 221°
2026-05-07 14:16 59.09130 -63.13438 37798 ft 424 kts 221°
2026-05-07 14:17 59.04795 -63.21165 37786 ft 426 kts 221°
2026-05-07 14:17 59.00411 -63.28951 37795 ft 426 kts 221°
2026-05-07 14:18 58.96030 -63.36706 37792 ft 426 kts 221°
2026-05-07 14:18 58.91669 -63.44396 37796 ft 426 kts 220°
2026-05-07 14:19 58.87284 -63.52101 37801 ft 426 kts 220°
2026-05-07 14:19 58.82871 -63.59825 37797 ft 426 kts 220°
2026-05-07 14:20 58.78503 -63.67445 37796 ft 426 kts 220°
2026-05-07 14:20 58.74095 -63.75108 37808 ft 426 kts 220°
2026-05-07 14:21 58.69699 -63.82721 37811 ft 426 kts 220°
2026-05-07 14:21 58.65295 -63.90323 37811 ft 425 kts 220°
2026-05-07 14:22 58.60899 -63.97886 37808 ft 424 kts 220°
2026-05-07 14:22 58.56521 -64.05388 37818 ft 423 kts 220°
2026-05-07 14:23 58.52128 -64.12889 37814 ft 423 kts 220°
2026-05-07 14:23 58.47712 -64.20406 37820 ft 423 kts 220°
2026-05-07 14:24 58.43314 -64.27864 37834 ft 425 kts 220°
2026-05-07 14:24 58.38908 -64.35311 37814 ft 425 kts 220°
2026-05-07 14:25 58.34477 -64.42774 37812 ft 425 kts 220°
2026-05-07 14:25 58.30038 -64.50223 37815 ft 425 kts 220°
2026-05-07 14:26 58.25606 -64.57636 37814 ft 425 kts 220°
2026-05-07 14:26 58.21174 -64.65024 37819 ft 425 kts 220°
2026-05-07 14:27 58.16730 -64.72405 37812 ft 424 kts 220°
2026-05-07 14:27 58.12283 -64.79766 37814 ft 424 kts 219°
2026-05-07 14:28 58.07837 -64.87099 37814 ft 424 kts 219°
2026-05-07 14:28 58.03391 -64.94409 37813 ft 424 kts 219°
2026-05-07 14:29 57.98945 -65.01677 37810 ft 424 kts 219°
2026-05-07 14:29 57.94474 -65.08876 37803 ft 424 kts 219°
2026-05-07 14:30 57.89979 -65.16062 37799 ft 424 kts 219°
2026-05-07 14:30 57.85482 -65.23230 37803 ft 424 kts 219°
2026-05-07 14:31 57.80977 -65.30395 37799 ft 424 kts 219°
2026-05-07 14:31 57.76497 -65.37499 37799 ft 424 kts 219°
2026-05-07 14:32 57.71996 -65.44613 37802 ft 423 kts 219°
2026-05-07 14:32 57.67500 -65.51694 37807 ft 423 kts 218°
2026-05-07 14:33 57.62992 -65.58770 37785 ft 423 kts 218°
2026-05-07 14:33 57.58481 -65.65827 37807 ft 423 kts 218°
2026-05-07 14:34 57.53965 -65.72867 37798 ft 423 kts 218°
2026-05-07 14:34 57.49472 -65.79849 37783 ft 423 kts 218°
2026-05-07 14:35 57.44943 -65.86864 37804 ft 423 kts 218°
2026-05-07 14:35 57.40415 -65.93853 37804 ft 423 kts 218°
2026-05-07 14:36 57.35903 -66.00794 37797 ft 423 kts 218°
2026-05-07 14:36 57.31358 -66.07765 37797 ft 423 kts 218°
2026-05-07 14:37 57.26831 -66.14684 37795 ft 423 kts 218°
2026-05-07 14:37 57.20013 -66.25061 37782 ft 425 kts 218°
2026-05-07 14:38 57.15448 -66.31980 37782 ft 425 kts 218°
2026-05-07 14:38 57.10883 -66.38878 37783 ft 425 kts 218°
2026-05-07 14:39 57.06319 -66.45750 37783 ft 425 kts 218°
2026-05-07 14:39 57.01743 -66.52618 37784 ft 425 kts 218°
2026-05-07 14:40 56.97163 -66.59470 37785 ft 424 kts 218°
2026-05-07 14:40 56.92565 -66.66326 37788 ft 424 kts 218°
2026-05-07 14:41 56.87999 -66.73112 37786 ft 424 kts 217°
2026-05-07 14:41 56.83410 -66.79910 37791 ft 424 kts 217°
2026-05-07 14:42 56.78809 -66.86703 37786 ft 425 kts 217°
2026-05-07 14:42 56.74212 -66.93469 37789 ft 425 kts 217°
2026-05-07 14:43 56.69631 -67.00190 37785 ft 425 kts 217°
2026-05-07 14:43 56.65013 -67.06943 37788 ft 425 kts 217°
2026-05-07 14:44 56.60430 -67.13623 37792 ft 425 kts 217°
2026-05-07 14:44 56.55816 -67.20326 37791 ft 425 kts 217°
2026-05-07 14:45 56.51205 -67.27003 37791 ft 425 kts 217°
2026-05-07 14:45 56.46584 -67.33674 37794 ft 425 kts 217°
2026-05-07 14:46 56.41962 -67.40326 37794 ft 424 kts 217°
2026-05-07 14:46 56.37335 -67.46963 37793 ft 424 kts 217°
2026-05-07 14:47 56.32728 -67.53549 37796 ft 424 kts 217°
2026-05-07 14:47 56.28110 -67.60131 37794 ft 424 kts 217°
2026-05-07 14:48 56.23477 -67.66714 37794 ft 424 kts 217°
2026-05-07 14:48 56.18835 -67.73288 37791 ft 425 kts 217°
2026-05-07 14:49 56.14185 -67.79853 37792 ft 424 kts 217°
2026-05-07 14:49 56.09538 -67.86393 37792 ft 425 kts 217°
2026-05-07 14:50 56.04890 -67.92913 37783 ft 427 kts 217°
2026-05-07 14:50 56.00214 -67.99452 37782 ft 427 kts 216°
2026-05-07 14:51 55.95545 -68.05961 37788 ft 427 kts 216°
2026-05-07 14:51 55.90860 -68.12472 37785 ft 427 kts 216°
2026-05-07 14:52 55.86171 -68.18967 37777 ft 427 kts 216°
2026-05-07 14:52 55.81490 -68.25431 37776 ft 427 kts 216°
2026-05-07 14:53 55.76781 -68.31914 37770 ft 427 kts 216°
2026-05-07 14:53 55.72100 -68.38337 37770 ft 427 kts 216°
2026-05-07 14:54 55.67404 -68.44762 37775 ft 427 kts 216°
2026-05-07 14:54 55.62698 -68.51180 37775 ft 427 kts 216°
2026-05-07 14:55 55.57968 -68.57610 37777 ft 427 kts 216°
2026-05-07 14:55 55.53282 -68.63961 37776 ft 427 kts 216°
2026-05-07 14:56 55.48565 -68.70335 37777 ft 427 kts 216°
2026-05-07 14:56 55.43855 -68.76680 37774 ft 427 kts 216°
2026-05-07 14:57 55.39128 -68.83026 37778 ft 427 kts 216°
2026-05-07 14:57 55.34399 -68.89357 37777 ft 427 kts 216°
2026-05-07 14:58 55.29700 -68.95629 37772 ft 427 kts 216°
2026-05-07 14:58 55.24971 -69.01922 37767 ft 427 kts 216°
2026-05-07 14:59 55.20235 -69.08204 37775 ft 427 kts 216°
2026-05-07 14:59 55.15480 -69.14491 37770 ft 427 kts 216°
2026-05-07 15:00 55.10738 -69.20743 37777 ft 427 kts 216°
2026-05-07 15:00 55.06010 -69.26957 37780 ft 427 kts 216°
2026-05-07 15:01 55.01258 -69.33184 37778 ft 427 kts 216°
2026-05-07 15:01 54.96495 -69.39407 37777 ft 427 kts 216°
2026-05-07 15:02 54.91736 -69.45605 37771 ft 428 kts 216°
2026-05-07 15:02 54.87772 -69.50753 37775 ft 429 kts 215°
2026-05-07 15:03 54.82178 -69.57996 37776 ft 429 kts 215°
2026-05-07 15:03 54.77422 -69.64135 37776 ft 429 kts 215°
2026-05-07 15:04 54.72625 -69.70307 37776 ft 429 kts 215°
2026-05-07 15:04 54.68608 -69.75463 37774 ft 429 kts 215°
2026-05-07 15:05 54.63805 -69.81609 37777 ft 429 kts 215°
2026-05-07 15:05 54.59002 -69.87736 37780 ft 430 kts 215°
2026-05-07 15:06 54.54215 -69.93825 37778 ft 430 kts 215°
2026-05-07 15:06 54.49406 -69.99924 37776 ft 430 kts 215°
2026-05-07 15:07 54.44590 -70.06013 37779 ft 430 kts 215°
2026-05-07 15:07 54.39776 -70.12082 37780 ft 430 kts 215°
2026-05-07 15:08 54.34946 -70.18153 37774 ft 430 kts 215°
2026-05-07 15:08 54.30117 -70.24206 37773 ft 430 kts 215°
2026-05-07 15:09 54.25323 -70.30195 37778 ft 430 kts 215°
2026-05-07 15:09 54.20490 -70.36215 37779 ft 430 kts 214°
2026-05-07 15:10 54.15649 -70.42227 37775 ft 430 kts 214°
2026-05-07 15:10 54.10807 -70.48224 37773 ft 430 kts 214°
2026-05-07 15:11 54.05984 -70.54180 37774 ft 430 kts 214°
2026-05-07 15:11 54.01131 -70.60154 37774 ft 430 kts 214°
2026-05-07 15:12 53.96276 -70.66114 37773 ft 430 kts 214°
2026-05-07 15:12 53.91427 -70.72049 37774 ft 430 kts 214°
2026-05-07 15:13 53.86557 -70.77992 37773 ft 431 kts 214°
2026-05-07 15:13 53.81717 -70.83881 37770 ft 430 kts 214°
2026-05-07 15:14 53.76844 -70.89793 37774 ft 431 kts 214°
2026-05-07 15:14 53.71935 -70.95730 37775 ft 433 kts 214°
2026-05-07 15:15 53.67035 -71.01640 37773 ft 433 kts 214°
2026-05-07 15:15 53.62132 -71.07538 37774 ft 433 kts 214°
2026-05-07 15:16 53.57253 -71.13390 37774 ft 433 kts 214°
2026-05-07 15:16 53.52340 -71.19265 37773 ft 433 kts 214°
2026-05-07 15:17 53.47415 -71.25136 37772 ft 434 kts 214°
2026-05-07 15:17 53.42490 -71.30991 37771 ft 434 kts 214°
2026-05-07 15:18 53.37551 -71.36845 37771 ft 434 kts 214°
2026-05-07 15:18 53.32625 -71.42668 37774 ft 434 kts 214°
2026-05-07 15:19 53.27692 -71.48483 37771 ft 434 kts 214°
2026-05-07 15:19 53.22759 -71.54280 37771 ft 434 kts 214°
2026-05-07 15:20 53.17814 -71.60074 37774 ft 434 kts 214°
2026-05-07 15:20 53.12869 -71.65853 37773 ft 434 kts 214°
2026-05-07 15:21 53.07914 -71.71625 37773 ft 435 kts 214°
2026-05-07 15:21 53.02971 -71.77367 37771 ft 435 kts 214°
2026-05-07 15:22 52.98008 -71.83117 37774 ft 435 kts 214°
2026-05-07 15:22 52.93044 -71.88851 37772 ft 435 kts 214°
2026-05-07 15:23 52.88071 -71.94578 37776 ft 435 kts 214°
2026-05-07 15:23 52.83102 -72.00285 37777 ft 435 kts 214°
2026-05-07 15:24 52.78125 -72.05985 37777 ft 435 kts 214°
2026-05-07 15:24 52.73143 -72.11675 37779 ft 435 kts 214°
2026-05-07 15:25 52.68187 -72.17319 37780 ft 435 kts 214°
2026-05-07 15:25 52.63196 -72.22982 37779 ft 437 kts 214°
2026-05-07 15:26 52.58176 -72.28667 37782 ft 438 kts 214°
2026-05-07 15:26 52.53155 -72.34336 37782 ft 438 kts 214°
2026-05-07 15:27 52.48117 -72.40010 37780 ft 438 kts 214°
2026-05-07 15:27 52.43090 -72.45655 37785 ft 438 kts 214°
2026-05-07 15:28 52.38070 -72.51275 37786 ft 439 kts 214°
2026-05-07 15:28 52.33018 -72.56915 37780 ft 439 kts 214°
2026-05-07 15:29 52.27968 -72.62539 37785 ft 439 kts 214°
2026-05-07 15:29 52.22910 -72.68154 37784 ft 439 kts 214°
2026-05-07 15:30 52.17871 -72.73733 37782 ft 439 kts 214°
2026-05-07 15:30 52.12809 -72.79322 37789 ft 439 kts 214°
2026-05-07 15:31 52.07788 -72.84850 37786 ft 439 kts 213°
2026-05-07 15:31 52.02730 -72.90403 37788 ft 439 kts 213°
2026-05-07 15:32 51.97653 -72.95961 37786 ft 439 kts 213°
2026-05-07 15:32 51.92578 -73.01503 37787 ft 440 kts 213°
2026-05-07 15:33 51.87532 -73.06998 37790 ft 440 kts 213°
2026-05-07 15:33 51.82446 -73.12520 37792 ft 440 kts 213°
2026-05-07 15:34 51.77350 -73.18038 37791 ft 440 kts 213°
2026-05-07 15:34 51.72271 -73.23523 37787 ft 440 kts 213°
2026-05-07 15:35 51.67185 -73.29001 37789 ft 440 kts 213°
2026-05-07 15:35 51.62111 -73.34449 37794 ft 440 kts 213°
2026-05-07 15:36 51.57013 -73.39910 37793 ft 440 kts 213°
2026-05-07 15:36 51.51883 -73.45388 37797 ft 442 kts 213°
2026-05-07 15:37 51.46777 -73.50828 37799 ft 442 kts 213°
2026-05-07 15:37 51.41637 -73.56291 37799 ft 442 kts 213°
2026-05-07 15:38 51.36518 -73.61714 38003 ft 445 kts 213°
2026-05-07 15:38 51.33910 -73.64471 38185 ft 446 kts 213°
2026-05-07 15:38 51.31325 -73.67200 38391 ft 446 kts 213°
2026-05-07 15:39 51.28754 -73.69911 38568 ft 446 kts 213°
2026-05-07 15:39 51.26149 -73.72654 38720 ft 446 kts 213°
2026-05-07 15:39 51.23577 -73.75357 38885 ft 446 kts 213°
2026-05-07 15:39 51.20968 -73.78097 39040 ft 446 kts 213°
2026-05-07 15:40 51.18397 -73.80793 39191 ft 446 kts 213°
2026-05-07 15:40 51.15784 -73.83529 39333 ft 446 kts 214°
2026-05-07 15:40 51.13214 -73.86217 39487 ft 446 kts 214°
2026-05-07 15:40 51.10604 -73.88942 39637 ft 446 kts 214°
2026-05-07 15:41 51.08018 -73.91639 39764 ft 447 kts 214°
2026-05-07 15:41 51.05422 -73.94343 39806 ft 449 kts 214°
2026-05-07 15:41 51.00090 -73.99691 39806 ft 453 kts 208°
2026-05-07 15:42 50.94409 -74.03995 39807 ft 453 kts 206°
2026-05-07 15:42 50.88685 -74.08142 39815 ft 453 kts 205°
2026-05-07 15:43 50.82952 -74.12265 39814 ft 453 kts 205°
2026-05-07 15:43 50.77234 -74.16364 39816 ft 453 kts 205°
2026-05-07 15:44 50.71498 -74.20463 39821 ft 453 kts 205°
2026-05-07 15:44 50.65751 -74.24560 39812 ft 453 kts 205°
2026-05-07 15:45 50.60013 -74.28638 39819 ft 453 kts 205°
2026-05-07 15:45 50.54270 -74.32710 39830 ft 453 kts 205°
2026-05-07 15:46 50.45646 -74.38804 39825 ft 453 kts 205°
2026-05-07 15:47 50.39893 -74.42855 39822 ft 453 kts 205°
2026-05-07 15:47 50.34138 -74.46898 39817 ft 453 kts 205°
2026-05-07 15:48 50.28409 -74.50911 39827 ft 453 kts 205°
2026-05-07 15:48 50.22647 -74.54937 39833 ft 453 kts 205°
2026-05-07 15:49 50.16920 -74.58927 39820 ft 453 kts 205°
2026-05-07 15:49 50.11161 -74.62929 39831 ft 453 kts 205°
2026-05-07 15:50 50.05428 -74.66904 39818 ft 453 kts 205°
2026-05-07 15:50 49.99675 -74.70881 39832 ft 453 kts 205°
2026-05-07 15:51 49.93913 -74.74853 39829 ft 453 kts 205°
2026-05-07 15:51 49.88159 -74.78810 39802 ft 453 kts 205°
2026-05-07 15:52 49.82401 -74.82759 39797 ft 452 kts 205°
2026-05-07 15:52 49.76664 -74.86684 39795 ft 452 kts 205°
2026-05-07 15:53 49.70914 -74.90608 39811 ft 452 kts 205°
2026-05-07 15:53 49.65147 -74.94532 39809 ft 452 kts 205°
2026-05-07 15:54 49.59367 -74.98455 39820 ft 452 kts 205°
2026-05-07 15:54 49.53610 -75.02354 39825 ft 452 kts 205°
2026-05-07 15:55 49.47878 -75.06224 39827 ft 452 kts 205°
2026-05-07 15:55 49.42114 -75.10107 39818 ft 452 kts 205°
2026-05-07 15:56 49.36357 -75.13975 39821 ft 452 kts 205°
2026-05-07 15:56 49.30580 -75.17846 39827 ft 452 kts 205°
2026-05-07 15:57 49.24822 -75.21695 39822 ft 453 kts 205°
2026-05-07 15:57 49.19031 -75.25556 39821 ft 453 kts 205°
2026-05-07 15:58 49.13251 -75.29400 39823 ft 453 kts 205°
2026-05-07 15:58 49.07486 -75.33223 39822 ft 453 kts 205°
2026-05-07 15:59 49.02678 -75.36405 39817 ft 453 kts 205°
2026-05-07 15:59 48.95938 -75.40853 39826 ft 453 kts 205°
2026-05-07 16:00 48.91096 -75.44041 39826 ft 453 kts 205°
2026-05-07 16:00 48.85339 -75.47822 39831 ft 453 kts 205°
2026-05-07 16:01 48.79554 -75.51613 39830 ft 453 kts 205°
2026-05-07 16:01 48.73753 -75.55404 39829 ft 453 kts 205°
2026-05-07 16:02 48.67964 -75.59178 39829 ft 453 kts 205°
2026-05-07 16:02 48.62179 -75.62939 39820 ft 453 kts 205°
2026-05-07 16:03 48.56383 -75.66698 39831 ft 453 kts 205°
2026-05-07 16:03 48.50615 -75.70430 39831 ft 453 kts 205°
2026-05-07 16:04 48.44810 -75.74176 39830 ft 453 kts 205°
2026-05-07 16:04 48.39020 -75.77903 39833 ft 453 kts 205°
2026-05-07 16:05 48.33218 -75.81630 39831 ft 453 kts 205°
2026-05-07 16:05 48.27432 -75.85336 39833 ft 453 kts 205°
2026-05-07 16:06 48.21661 -75.89024 39828 ft 453 kts 205°
2026-05-07 16:06 48.15872 -75.92715 39834 ft 452 kts 205°
2026-05-07 16:07 48.10077 -75.96400 39832 ft 452 kts 205°
2026-05-07 16:07 48.04304 -76.00061 39838 ft 452 kts 205°
2026-05-07 16:08 47.98504 -76.03732 39836 ft 452 kts 205°
2026-05-07 16:08 47.92692 -76.07400 39837 ft 452 kts 205°
2026-05-07 16:09 47.86900 -76.11048 39844 ft 452 kts 205°
2026-05-07 16:09 47.81118 -76.14680 39835 ft 452 kts 205°
2026-05-07 16:10 47.75342 -76.18299 39844 ft 451 kts 205°
2026-05-07 16:10 47.69546 -76.21922 39848 ft 451 kts 205°
2026-05-07 16:11 47.63789 -76.25513 39852 ft 451 kts 205°
2026-05-07 16:11 47.58016 -76.29105 39851 ft 450 kts 205°
2026-05-07 16:12 47.52230 -76.32696 39853 ft 450 kts 205°
2026-05-07 16:12 47.46450 -76.36274 39854 ft 450 kts 205°
2026-05-07 16:13 47.40670 -76.39845 39847 ft 450 kts 205°
2026-05-07 16:13 47.34914 -76.43391 39864 ft 448 kts 206°
2026-05-07 16:14 47.29180 -76.46916 39864 ft 448 kts 205°
2026-05-07 16:14 47.23416 -76.50452 39863 ft 448 kts 205°
2026-05-07 16:15 47.17657 -76.53976 39867 ft 448 kts 206°
2026-05-07 16:15 47.11934 -76.57470 39873 ft 447 kts 206°
2026-05-07 16:16 47.06213 -76.60954 39872 ft 447 kts 206°
2026-05-07 16:16 47.00438 -76.64463 39864 ft 447 kts 206°
2026-05-07 16:17 46.94706 -76.67937 39874 ft 446 kts 206°
2026-05-07 16:17 46.88984 -76.71398 39872 ft 446 kts 206°
2026-05-07 16:18 46.83269 -76.74846 39871 ft 446 kts 206°
2026-05-07 16:18 46.77536 -76.78296 39869 ft 445 kts 206°
2026-05-07 16:19 46.71807 -76.81736 39868 ft 444 kts 206°
2026-05-07 16:19 46.66118 -76.85145 39869 ft 444 kts 206°
2026-05-07 16:20 46.60402 -76.88562 39867 ft 444 kts 206°
2026-05-07 16:20 46.54674 -76.91978 39874 ft 443 kts 206°
2026-05-07 16:21 46.49002 -76.95354 39872 ft 443 kts 206°
2026-05-07 16:21 46.43293 -76.98743 39856 ft 443 kts 206°
2026-05-07 16:22 46.37598 -77.02116 39877 ft 442 kts 206°
2026-05-07 16:22 46.31908 -77.05480 39881 ft 441 kts 206°
2026-05-07 16:23 46.26223 -77.08832 39877 ft 441 kts 206°
2026-05-07 16:23 46.20541 -77.12176 39891 ft 441 kts 206°
2026-05-07 16:24 46.14864 -77.15509 39883 ft 440 kts 206°
2026-05-07 16:24 46.09177 -77.18840 39882 ft 440 kts 206°
2026-05-07 16:25 46.03501 -77.22158 39894 ft 440 kts 206°
2026-05-07 16:25 45.97825 -77.25465 39888 ft 441 kts 206°
2026-05-07 16:26 45.92116 -77.28789 39884 ft 442 kts 206°
2026-05-07 16:26 45.86437 -77.32087 39889 ft 442 kts 206°
2026-05-07 16:27 45.80724 -77.35396 39888 ft 441 kts 206°
2026-05-07 16:27 45.75046 -77.38678 39890 ft 440 kts 206°
2026-05-07 16:28 45.69396 -77.41938 39900 ft 440 kts 206°
2026-05-07 16:28 45.63691 -77.45221 39899 ft 440 kts 206°
2026-05-07 16:29 45.58250 -77.48945 39901 ft 431 kts 219°
2026-05-07 16:29 45.53565 -77.54292 39900 ft 429 kts 223°
2026-05-07 16:30 45.48997 -77.59730 39878 ft 429 kts 223°
2026-05-07 16:30 45.44390 -77.65177 39907 ft 428 kts 223°
2026-05-07 16:31 45.39825 -77.70551 39906 ft 428 kts 223°
2026-05-07 16:31 45.37532 -77.73244 39780 ft 426 kts 223°
2026-05-07 16:31 45.35267 -77.75898 39696 ft 415 kts 223°
2026-05-07 16:31 45.33060 -77.78480 39691 ft 404 kts 223°
2026-05-07 16:32 45.30912 -77.80993 39588 ft 395 kts 223°
2026-05-07 16:32 45.28823 -77.83437 39263 ft 393 kts 223°
2026-05-07 16:32 45.26707 -77.85912 38875 ft 392 kts 223°
2026-05-07 16:32 45.24597 -77.88377 38465 ft 393 kts 223°
2026-05-07 16:33 45.22487 -77.90838 38004 ft 392 kts 223°
2026-05-07 16:33 45.20378 -77.93295 37603 ft 390 kts 223°
2026-05-07 16:33 45.18310 -77.95700 37203 ft 388 kts 223°
2026-05-07 16:33 45.16227 -77.98121 36794 ft 387 kts 223°
2026-05-07 16:34 45.14143 -78.00541 36362 ft 387 kts 224°
2026-05-07 16:34 45.12060 -78.02958 35976 ft 386 kts 224°
2026-05-07 16:34 45.10001 -78.05344 35557 ft 385 kts 224°
2026-05-07 16:34 45.07904 -78.07772 35085 ft 385 kts 224°
2026-05-07 16:35 45.05840 -78.10160 34630 ft 385 kts 224°
2026-05-07 16:35 45.03759 -78.12565 34102 ft 387 kts 224°
2026-05-07 16:35 45.01683 -78.14962 33502 ft 388 kts 224°
2026-05-07 16:35 44.99579 -78.17389 32933 ft 387 kts 224°
2026-05-07 16:36 44.97494 -78.19791 32377 ft 386 kts 224°
2026-05-07 16:36 44.95425 -78.22172 31800 ft 385 kts 224°
2026-05-07 16:36 44.93358 -78.24547 31404 ft 381 kts 225°
2026-05-07 16:36 44.91319 -78.26886 31035 ft 376 kts 225°
2026-05-07 16:37 44.89311 -78.29189 30638 ft 372 kts 225°
2026-05-07 16:37 44.87310 -78.31484 30244 ft 368 kts 225°
2026-05-07 16:37 44.85328 -78.33755 29828 ft 366 kts 225°
2026-05-07 16:37 44.83356 -78.36013 29397 ft 364 kts 225°
2026-05-07 16:38 44.81399 -78.38252 29000 ft 361 kts 225°
2026-05-07 16:38 44.79443 -78.40487 28604 ft 359 kts 225°
2026-05-07 16:38 44.77515 -78.42687 28204 ft 355 kts 225°
2026-05-07 16:38 44.75610 -78.44859 27813 ft 350 kts 225°
2026-05-07 16:39 44.73716 -78.47019 27431 ft 349 kts 225°
2026-05-07 16:39 44.71857 -78.49137 27061 ft 348 kts 225°
2026-05-07 16:39 44.69953 -78.51304 26675 ft 346 kts 225°
2026-05-07 16:39 44.68107 -78.53401 26269 ft 345 kts 225°
2026-05-07 16:40 44.66249 -78.55512 25878 ft 343 kts 225°
2026-05-07 16:40 44.64400 -78.57610 25491 ft 340 kts 225°
2026-05-07 16:40 44.62556 -78.59701 25114 ft 339 kts 225°
2026-05-07 16:40 44.60725 -78.61776 24719 ft 337 kts 225°
2026-05-07 16:41 44.58910 -78.63830 24346 ft 335 kts 225°
2026-05-07 16:41 44.57093 -78.65885 23962 ft 334 kts 225°
2026-05-07 16:41 44.55289 -78.67924 23582 ft 332 kts 225°
2026-05-07 16:41 44.53492 -78.69953 23165 ft 331 kts 225°
2026-05-07 16:42 44.51723 -78.71949 22792 ft 329 kts 225°
2026-05-07 16:42 44.49945 -78.73953 22410 ft 328 kts 225°
2026-05-07 16:42 44.48166 -78.75957 22034 ft 327 kts 225°
2026-05-07 16:42 44.46394 -78.77951 21658 ft 325 kts 225°
2026-05-07 16:43 44.44635 -78.79929 21263 ft 324 kts 225°
2026-05-07 16:43 44.42875 -78.81906 20906 ft 321 kts 225°
2026-05-07 16:43 44.41135 -78.83859 20546 ft 319 kts 225°
2026-05-07 16:43 44.39407 -78.85798 20167 ft 318 kts 225°
2026-05-07 16:44 44.37684 -78.87730 19805 ft 317 kts 225°
2026-05-07 16:44 44.35993 -78.89625 19444 ft 316 kts 225°
2026-05-07 16:44 44.34275 -78.91547 19086 ft 314 kts 225°
2026-05-07 16:44 44.32572 -78.93452 18726 ft 313 kts 225°
2026-05-07 16:45 44.30873 -78.95351 18350 ft 312 kts 225°
2026-05-07 16:45 44.29183 -78.97239 17963 ft 311 kts 225°
2026-05-07 16:45 44.27492 -78.99127 17587 ft 310 kts 225°
2026-05-07 16:45 44.25806 -79.01007 17207 ft 310 kts 225°
2026-05-07 16:46 44.24125 -79.02881 16888 ft 309 kts 224°
2026-05-07 16:46 44.22439 -79.04759 16523 ft 309 kts 224°
2026-05-07 16:46 44.20761 -79.06626 16160 ft 309 kts 224°
2026-05-07 16:46 44.19081 -79.08494 15783 ft 310 kts 224°
2026-05-07 16:47 44.17397 -79.10365 15407 ft 310 kts 224°
2026-05-07 16:47 44.15713 -79.12233 15011 ft 309 kts 223°
2026-05-07 16:47 44.14035 -79.14095 14645 ft 308 kts 223°
2026-05-07 16:47 44.12354 -79.15957 14281 ft 308 kts 223°
2026-05-07 16:48 44.10681 -79.17810 13914 ft 308 kts 223°
2026-05-07 16:48 44.09004 -79.19666 13492 ft 306 kts 223°
2026-05-07 16:48 44.07345 -79.21501 13110 ft 304 kts 223°
2026-05-07 16:48 44.05710 -79.23307 12754 ft 302 kts 223°
2026-05-07 16:49 44.04070 -79.25117 12383 ft 300 kts 222°
2026-05-07 16:49 44.02437 -79.26920 12026 ft 299 kts 222°
2026-05-07 16:49 44.00809 -79.28715 11657 ft 297 kts 222°
2026-05-07 16:49 43.99737 -79.29897 11405 ft 296 kts 222°
2026-05-07 16:50 43.98128 -79.31669 11032 ft 294 kts 221°
2026-05-07 16:50 43.96534 -79.33421 10769 ft 287 kts 221°
2026-05-07 16:50 43.95006 -79.35098 10703 ft 273 kts 221°
2026-05-07 16:50 43.93541 -79.36706 10604 ft 263 kts 222°
2026-05-07 16:51 43.92126 -79.38260 10480 ft 255 kts 222°
2026-05-07 16:51 43.90754 -79.39765 10301 ft 249 kts 222°
2026-05-07 16:51 43.89396 -79.41259 10016 ft 249 kts 222°
2026-05-07 16:51 43.88048 -79.42740 9720 ft 249 kts 221°
2026-05-07 16:52 43.86707 -79.44258 9463 ft 249 kts 225°
2026-05-07 16:52 43.85616 -79.46066 9288 ft 239 kts 238°
2026-05-07 16:52 43.84780 -79.47989 9212 ft 228 kts 242°
2026-05-07 16:52 43.84016 -79.49873 9147 ft 220 kts 243°
2026-05-07 16:53 43.83281 -79.51699 9024 ft 215 kts 243°
2026-05-07 16:53 43.82552 -79.53506 8808 ft 214 kts 243°
2026-05-07 16:53 43.81827 -79.55294 8594 ft 213 kts 243°
2026-05-07 16:53 43.81105 -79.57069 8379 ft 211 kts 242°
2026-05-07 16:54 43.80386 -79.58834 8177 ft 209 kts 243°
2026-05-07 16:54 43.79671 -79.60587 7979 ft 208 kts 243°
2026-05-07 16:54 43.78961 -79.62324 7772 ft 208 kts 243°
2026-05-07 16:54 43.78249 -79.64066 7580 ft 207 kts 243°
2026-05-07 16:55 43.77540 -79.65801 7365 ft 207 kts 243°
2026-05-07 16:55 43.76832 -79.67529 7161 ft 206 kts 243°
2026-05-07 16:55 43.76135 -79.69229 6988 ft 205 kts 242°
2026-05-07 16:55 43.75432 -79.70945 6900 ft 205 kts 242°
2026-05-07 16:56 43.74628 -79.72572 6675 ft 207 kts 232°
2026-05-07 16:56 43.73666 -79.74051 6470 ft 207 kts 229°
2026-05-07 16:56 43.71674 -79.76923 6164 ft 205 kts 229°
2026-05-07 16:57 43.70682 -79.78349 5958 ft 206 kts 229°
2026-05-07 16:57 43.69640 -79.79728 5631 ft 210 kts 219°
2026-05-07 16:57 43.68374 -79.80765 5343 ft 214 kts 211°
2026-05-07 16:57 43.67036 -79.81707 5029 ft 216 kts 210°
2026-05-07 16:58 43.65712 -79.82616 4745 ft 218 kts 210°
2026-05-07 16:58 43.64336 -79.83557 4417 ft 222 kts 210°
2026-05-07 16:58 43.62935 -79.84515 4121 ft 227 kts 210°
2026-05-07 16:58 43.61520 -79.85484 3872 ft 226 kts 210°
2026-05-07 16:59 43.60109 -79.86446 3659 ft 225 kts 210°
2026-05-07 16:59 43.58697 -79.87296 3519 ft 219 kts 197°
2026-05-07 16:59 43.57218 -79.87181 3415 ft 214 kts 162°
2026-05-07 16:59 43.56075 -79.85949 3312 ft 209 kts 124°
2026-05-07 17:00 43.55810 -79.84074 3228 ft 198 kts 78°
2026-05-07 17:00 43.56349 -79.82413 3144 ft 186 kts 49°
2026-05-07 17:00 43.57221 -79.81148 3052 ft 180 kts 40°
2026-05-07 17:00 43.58097 -79.79926 3002 ft 179 kts 41°
2026-05-07 17:01 43.58949 -79.78698 2993 ft 179 kts 43°
2026-05-07 17:01 43.59803 -79.77453 2888 ft 174 kts 43°
2026-05-07 17:01 43.60630 -79.76248 2654 ft 173 kts 43°
2026-05-07 17:01 43.61442 -79.75073 2401 ft 168 kts 43°
2026-05-07 17:02 43.62220 -79.73947 2150 ft 160 kts 43°
2026-05-07 17:02 43.62950 -79.72888 1941 ft 148 kts 43°
2026-05-07 17:02 43.63641 -79.71886 1763 ft 141 kts 43°
2026-05-07 17:02 43.64307 -79.70925 1558 ft 140 kts 44°
2026-05-07 17:03 43.64975 -79.69952 1348 ft 139 kts 43°
2026-05-07 17:03 43.65637 -79.68990 1161 ft 137 kts 44°
2026-05-07 17:03 43.66300 -79.68036 954 ft 138 kts 46°
2026-05-07 17:03 43.66963 -79.67070 769 ft 139 kts 49°
2026-05-07 17:04 43.67623 -79.66109 602 ft 135 kts 49°
2026-05-07 17:04 43.68223 -79.65235 575 ft 110 kts 47°
2026-05-07 17:04 43.68616 -79.64668 575 ft 50 kts 47°
2026-05-07 17:04 43.68725 -79.64441 572 ft 22 kts 70°
2026-05-07 17:05 43.68762 -79.64245 572 ft 16 kts 79°
2026-05-07 17:05 43.68781 -79.64097 577 ft 15 kts 80°
2026-05-07 17:05 43.68772 -79.63977 578 ft 12 kts 123°
2026-05-07 17:05 43.68706 -79.63886 579 ft 15 kts 136°
2026-05-07 17:06 43.68630 -79.63786 580 ft 16 kts 136°
2026-05-07 17:06 43.68542 -79.63672 573 ft 19 kts 137°
2026-05-07 17:06 43.68440 -79.63540 575 ft 20 kts 136°
2026-05-07 17:06 43.68360 -79.63439 572 ft 9 kts 147°
2026-05-07 17:07 43.68308 -79.63456 578 ft 8 kts 218°
2026-05-07 17:07 43.68260 -79.63487 579 ft 8 kts 174°
2026-05-07 17:07 43.68214 -79.63444 576 ft 9 kts 136°
2026-05-07 17:07 43.68169 -79.63395 578 ft 5 kts 164°
2026-05-07 17:08 43.68151 -79.63414 578 ft 4 kts 232°
2026-05-07 17:08 43.68132 -79.63452 578 ft 6 kts 237°
2026-05-07 17:08 43.68123 -79.63473 575 ft 2 kts 237°
2026-05-07 17:08 43.68121 -79.63476 575 ft 0 kts 237°
2026-05-07 17:09 43.68118 -79.63483 576 ft 0 kts 237°
2026-05-07 17:09 43.68117 -79.63486 577 ft 0 kts 237°